Wetterdaten: Samstag, 22.04.2017
Datum Zeit Temp. Aussen Temp. o. S. +5cm Feuchte Auss BlattFeu 1 Luftdruck Regen Sonnenschein Regendauer Solar Windben Empfang
22.04.2017 00:00 10,9 C 10,6 C 9,4 C 83 % 0 lf 1025,2 hPa 0,0 l/m 0 min 0 min 0 W/m 14,6 km/h (3 Bft) 93,48 %
22.04.2017 00:02 10,8 C 11,1 C 9,4 C 83 % 0 lf 1025,2 hPa 0,0 l/m 0 min 0 min 0 W/m 16,7 km/h (3 Bft) 90,91 %
22.04.2017 00:04 10,8 C 10,6 C 9,4 C 82 % 0 lf 1025,2 hPa 0,0 l/m 0 min 0 min 0 W/m 12,6 km/h (3 Bft) 93,62 %
22.04.2017 00:06 10,8 C 10,6 C 9,4 C 82 % 0 lf 1025,2 hPa 0,0 l/m 0 min 0 min 0 W/m 12,6 km/h (3 Bft) 97,87 %
22.04.2017 00:10 10,8 C 10,6 C 9,4 C 83 % 0 lf 1025,2 hPa 0,0 l/m 0 min 0 min 0 W/m 14,6 km/h (3 Bft) 96,81 %
22.04.2017 00:12 10,8 C 10,6 C 9,4 C 83 % 0 lf 1025,2 hPa 0,0 l/m 0 min 0 min 0 W/m 12,6 km/h (3 Bft) 95,65 %
22.04.2017 00:14 10,8 C 10,6 C 9,4 C 83 % 0 lf 1025,2 hPa 0,0 l/m 0 min 0 min 0 W/m 18,8 km/h (3 Bft) 97,87 %
22.04.2017 00:16 10,8 C 10,6 C 9,4 C 83 % 0 lf 1025,2 hPa 0,0 l/m 0 min 0 min 0 W/m 12,6 km/h (3 Bft) 97,87 %
22.04.2017 00:18 10,7 C 10,6 C 9,4 C 83 % 0 lf 1025,2 hPa 0,0 l/m 0 min 0 min 0 W/m 14,6 km/h (3 Bft) 95,74 %
22.04.2017 00:20 10,7 C 10,6 C 9,4 C 83 % 0 lf 1025,2 hPa 0,0 l/m 0 min 0 min 0 W/m 10,5 km/h (2 Bft) 97,87 %
22.04.2017 00:22 10,8 C 10,6 C 8,9 C 83 % 0 lf 1025,2 hPa 0,0 l/m 0 min 0 min 0 W/m 8,4 km/h (2 Bft) 97,87 %
22.04.2017 00:24 10,7 C 10,6 C 8,9 C 83 % 0 lf 1025,2 hPa 0,0 l/m 0 min 0 min 0 W/m 8,4 km/h (2 Bft) 97,83 %
22.04.2017 00:26 10,7 C 10,6 C 8,9 C 83 % 0 lf 1025,1 hPa 0,0 l/m 0 min 0 min 0 W/m 12,6 km/h (3 Bft) 95,74 %
22.04.2017 00:28 10,7 C 10,6 C 8,9 C 83 % 0 lf 1025,2 hPa 0,0 l/m 0 min 0 min 0 W/m 12,6 km/h (3 Bft) 97,87 %
22.04.2017 00:30 10,7 C 10,6 C 8,9 C 83 % 0 lf 1025,2 hPa 0,0 l/m 0 min 0 min 0 W/m 14,6 km/h (3 Bft) 97,87 %
22.04.2017 00:32 10,7 C 10,6 C 8,9 C 83 % 1 lf 1025,2 hPa 0,0 l/m 0 min 0 min 0 W/m 8,4 km/h (2 Bft) 97,87 %
22.04.2017 00:34 10,7 C 10,6 C 8,9 C 83 % 1 lf 1025,1 hPa 0,0 l/m 0 min 0 min 0 W/m 10,5 km/h (2 Bft) 97,83 %
22.04.2017 00:36 10,7 C 10,6 C 8,9 C 84 % 1 lf 1025,1 hPa 0,0 l/m 0 min 0 min 0 W/m 14,6 km/h (3 Bft) 97,87 %
22.04.2017 00:38 10,7 C 10,6 C 8,9 C 84 % 0 lf 1025,0 hPa 0,0 l/m 0 min 0 min 0 W/m 12,6 km/h (3 Bft) 97,87 %
22.04.2017 00:40 10,7 C 10,6 C 8,9 C 84 % 0 lf 1024,9 hPa 0,0 l/m 0 min 0 min 0 W/m 10,5 km/h (2 Bft) 100,00 %
22.04.2017 00:42 10,7 C 10,6 C 8,9 C 84 % 0 lf 1024,9 hPa 0,0 l/m 0 min 0 min 0 W/m 10,5 km/h (2 Bft) 100,00 %
22.04.2017 00:44 10,7 C 10,6 C 8,9 C 84 % 0 lf 1024,9 hPa 0,0 l/m 0 min 0 min 0 W/m 14,6 km/h (3 Bft) 100,00 %
22.04.2017 00:46 10,7 C 10,6 C 8,9 C 84 % 0 lf 1025,0 hPa 0,0 l/m 0 min 0 min 0 W/m 10,5 km/h (2 Bft) 95,74 %
22.04.2017 00:48 10,6 C 10,6 C 8,9 C 84 % 0 lf 1025,0 hPa 0,0 l/m 0 min 0 min 0 W/m 6,3 km/h (2 Bft) 97,83 %
22.04.2017 00:50 10,6 C 10,6 C 8,9 C 84 % 0 lf 1025,0 hPa 0,0 l/m 0 min 0 min 0 W/m 14,6 km/h (3 Bft) 95,74 %
22.04.2017 00:52 10,6 C 10,6 C 8,9 C 84 % 0 lf 1024,9 hPa 0,0 l/m 0 min 0 min 0 W/m 14,6 km/h (3 Bft) 95,74 %
22.04.2017 00:54 10,6 C 10,6 C 8,9 C 84 % 0 lf 1024,9 hPa 0,0 l/m 0 min 0 min 0 W/m 12,6 km/h (3 Bft) 95,74 %
22.04.2017 00:56 10,6 C 10,6 C 8,9 C 84 % 0 lf 1024,9 hPa 0,0 l/m 0 min 0 min 0 W/m 12,6 km/h (3 Bft) 93,62 %
22.04.2017 00:58 10,6 C 10,6 C 8,9 C 84 % 0 lf 1024,8 hPa 0,0 l/m 0 min 0 min 0 W/m 12,6 km/h (3 Bft) 97,83 %
22.04.2017 01:00 10,6 C 10,6 C 8,9 C 84 % 0 lf 1024,8 hPa 0,0 l/m 0 min 0 min 0 W/m 14,6 km/h (3 Bft) 93,62 %
22.04.2017 01:02 10,6 C 10,6 C 8,9 C 84 % 0 lf 1024,7 hPa 0,0 l/m 0 min 0 min 0 W/m 16,7 km/h (3 Bft) 93,62 %
22.04.2017 01:04 10,6 C 10,6 C 8,9 C 84 % 0 lf 1024,8 hPa 0,0 l/m 0 min 0 min 0 W/m 6,3 km/h (2 Bft) 95,74 %
22.04.2017 01:06 10,6 C 10,6 C 8,9 C 84 % 0 lf 1024,8 hPa 0,0 l/m 0 min 0 min 0 W/m 12,6 km/h (3 Bft) 95,74 %
22.04.2017 01:08 10,6 C 10,6 C 8,9 C 85 % 0 lf 1024,8 hPa 0,0 l/m 0 min 0 min 0 W/m 16,7 km/h (3 Bft) 93,62 %
22.04.2017 01:10 10,5 C 10,6 C 8,9 C 85 % 0 lf 1024,8 hPa 0,0 l/m 0 min 0 min 0 W/m 10,5 km/h (2 Bft) 95,65 %
22.04.2017 01:12 10,5 C 10,6 C 8,9 C 85 % 0 lf 1024,8 hPa 0,0 l/m 0 min 0 min 0 W/m 16,7 km/h (3 Bft) 93,62 %
22.04.2017 01:14 10,5 C 10,6 C 8,9 C 85 % 0 lf 1024,8 hPa 0,0 l/m 0 min 0 min 0 W/m 12,6 km/h (3 Bft) 93,62 %
22.04.2017 01:16 10,5 C 10,6 C 8,9 C 85 % 0 lf 1024,8 hPa 0,0 l/m 0 min 0 min 0 W/m 18,8 km/h (3 Bft) 91,49 %
22.04.2017 01:18 10,5 C 10,6 C 8,9 C 85 % 0 lf 1024,8 hPa 0,0 l/m 0 min 0 min 0 W/m 16,7 km/h (3 Bft) 93,62 %
22.04.2017 01:20 10,5 C 10,6 C 8,9 C 85 % 0 lf 1024,8 hPa 0,0 l/m 0 min 0 min 0 W/m 10,5 km/h (2 Bft) 93,62 %
22.04.2017 01:22 10,5 C 10,6 C 8,9 C 85 % 0 lf 1024,8 hPa 0,0 l/m 0 min 0 min 0 W/m 12,6 km/h (3 Bft) 91,30 %
22.04.2017 01:24 10,4 C 10,6 C 8,9 C 85 % 0 lf 1024,8 hPa 0,0 l/m 0 min 0 min 0 W/m 8,4 km/h (2 Bft) 93,62 %
22.04.2017 01:26 10,4 C 10,6 C 8,9 C 85 % 0 lf 1024,8 hPa 0,0 l/m 0 min 0 min 0 W/m 12,6 km/h (3 Bft) 91,49 %
22.04.2017 01:28 10,4 C 10,6 C 8,9 C 85 % 1 lf 1024,7 hPa 0,0 l/m 0 min 0 min 0 W/m 18,8 km/h (3 Bft) 91,49 %
22.04.2017 01:30 10,4 C 10,6 C 8,9 C 85 % 0 lf 1024,7 hPa 0,0 l/m 0 min 0 min 0 W/m 12,6 km/h (3 Bft) 91,49 %
22.04.2017 01:32 10,4 C 10,6 C 8,9 C 85 % 0 lf 1024,7 hPa 0,0 l/m 0 min 0 min 0 W/m 12,6 km/h (3 Bft) 93,62 %
22.04.2017 01:34 10,4 C 10,6 C 8,9 C 85 % 12 lf 1024,7 hPa 0,0 l/m 0 min 2 min 0 W/m 12,6 km/h (3 Bft) 93,48 %
22.04.2017 01:36 10,4 C 10,0 C 8,9 C 85 % 9 lf 1024,7 hPa 0,0 l/m 0 min 2 min 0 W/m 12,6 km/h (3 Bft) 95,74 %
22.04.2017 01:38 10,4 C 10,0 C 8,3 C 85 % 3 lf 1024,7 hPa 0,0 l/m 0 min 0 min 0 W/m 10,5 km/h (2 Bft) 97,87 %
22.04.2017 01:40 10,4 C 10,0 C 8,3 C 85 % 1 lf 1024,7 hPa 0,0 l/m 0 min 0 min 0 W/m 10,5 km/h (2 Bft) 97,87 %
22.04.2017 01:42 10,4 C 10,0 C 8,3 C 85 % 0 lf 1024,6 hPa 0,0 l/m 0 min 0 min 0 W/m 12,6 km/h (3 Bft) 95,74 %
22.04.2017 01:44 10,4 C 10,0 C 8,3 C 85 % 0 lf 1024,6 hPa 0,0 l/m 0 min 0 min 0 W/m 10,5 km/h (2 Bft) 95,74 %
22.04.2017 01:46 10,4 C 10,0 C 8,9 C 85 % 0 lf 1024,6 hPa 0,0 l/m 0 min 0 min 0 W/m 10,5 km/h (2 Bft) 97,83 %
22.04.2017 01:48 10,4 C 10,0 C 8,9 C 85 % 1 lf 1024,6 hPa 0,0 l/m 0 min 0 min 0 W/m 10,5 km/h (2 Bft) 93,62 %
22.04.2017 01:50 10,4 C 10,6 C 8,9 C 85 % 1 lf 1024,5 hPa 0,0 l/m 0 min 0 min 0 W/m 12,6 km/h (3 Bft) 97,87 %
22.04.2017 01:52 10,4 C 10,6 C 8,9 C 85 % 3 lf 1024,4 hPa 0,0 l/m 0 min 2 min 0 W/m 12,6 km/h (3 Bft) 97,87 %
22.04.2017 01:54 10,4 C 10,0 C 8,9 C 85 % 1 lf 1024,4 hPa 0,0 l/m 0 min 2 min 0 W/m 14,6 km/h (3 Bft) 97,87 %
22.04.2017 01:56 10,4 C 10,0 C 8,3 C 86 % 0 lf 1024,3 hPa 0,0 l/m 0 min 0 min 0 W/m 10,5 km/h (2 Bft) 97,87 %
22.04.2017 01:58 10,4 C 10,0 C 8,3 C 86 % 0 lf 1024,4 hPa 0,0 l/m 0 min 0 min 0 W/m 14,6 km/h (3 Bft) 93,48 %
22.04.2017 02:00 10,4 C 10,0 C 8,3 C 86 % 0 lf 1024,3 hPa 0,0 l/m 0 min 0 min 0 W/m 10,5 km/h (2 Bft) 97,87 %
22.04.2017 02:02 10,4 C 10,6 C 8,3 C 86 % 0 lf 1024,3 hPa 0,0 l/m 0 min 0 min 0 W/m 14,6 km/h (3 Bft) 97,87 %
22.04.2017 02:04 10,3 C 10,6 C 8,3 C 86 % 0 lf 1024,3 hPa 0,0 l/m 0 min 0 min 0 W/m 12,6 km/h (3 Bft) 97,87 %
22.04.2017 02:06 10,3 C 10,6 C 8,9 C 86 % 1 lf 1024,3 hPa 0,0 l/m 0 min 2 min 0 W/m 16,7 km/h (3 Bft) 97,87 %
22.04.2017 02:08 10,3 C 10,6 C 8,9 C 86 % 0 lf 1024,2 hPa 0,0 l/m 0 min 0 min 0 W/m 10,5 km/h (2 Bft) 97,87 %
22.04.2017 02:10 10,3 C 10,6 C 8,9 C 86 % 0 lf 1024,2 hPa 0,0 l/m 0 min 0 min 0 W/m 16,7 km/h (3 Bft) 100,00 %
22.04.2017 02:12 10,3 C 10,6 C 8,9 C 86 % 0 lf 1024,3 hPa 0,0 l/m 0 min 0 min 0 W/m 12,6 km/h (3 Bft) 100,00 %
22.04.2017 02:14 10,3 C 10,6 C 8,9 C 86 % 0 lf 1024,2 hPa 0,0 l/m 0 min 0 min 0 W/m 12,6 km/h (3 Bft) 100,00 %
22.04.2017 02:16 10,3 C 10,6 C 8,9 C 86 % 2 lf 1024,2 hPa 0,0 l/m 0 min 2 min 0 W/m 10,5 km/h (2 Bft) 97,87 %
22.04.2017 02:18 10,3 C 10,6 C 8,9 C 86 % 1 lf 1024,2 hPa 0,0 l/m 0 min 0 min 0 W/m 12,6 km/h (3 Bft) 100,00 %
22.04.2017 02:20 10,3 C 10,6 C 8,9 C 86 % 3 lf 1024,2 hPa 0,0 l/m 0 min 0 min 0 W/m 12,6 km/h (3 Bft) 100,00 %
22.04.2017 02:22 10,3 C 10,0 C 8,9 C 86 % 9 lf 1024,2 hPa 0,0 l/m 0 min 2 min 0 W/m 10,5 km/h (2 Bft) 97,83 %
22.04.2017 02:24 10,3 C 10,0 C 8,9 C 87 % 5 lf 1024,2 hPa 0,0 l/m 0 min 0 min 0 W/m 14,6 km/h (3 Bft) 100,00 %
22.04.2017 02:26 10,3 C 10,0 C 8,3 C 87 % 3 lf 1024,1 hPa 0,0 l/m 0 min 0 min 0 W/m 12,6 km/h (3 Bft) 97,87 %
22.04.2017 02:28 10,3 C 10,0 C 8,3 C 87 % 1 lf 1024,1 hPa 0,0 l/m 0 min 0 min 0 W/m 10,5 km/h (2 Bft) 97,87 %
22.04.2017 02:30 10,3 C 10,0 C 8,3 C 87 % 0 lf 1024,1 hPa 0,0 l/m 0 min 0 min 0 W/m 8,4 km/h (2 Bft) 100,00 %
22.04.2017 02:32 10,3 C 10,0 C 8,3 C 87 % 0 lf 1024,1 hPa 0,0 l/m 0 min 0 min 0 W/m 12,6 km/h (3 Bft) 95,65 %
22.04.2017 02:34 10,3 C 10,0 C 8,9 C 87 % 0 lf 1024,0 hPa 0,0 l/m 0 min 0 min 0 W/m 14,6 km/h (3 Bft) 97,87 %
22.04.2017 02:36 10,3 C 10,0 C 8,9 C 87 % 0 lf 1024,0 hPa 0,0 l/m 0 min 0 min 0 W/m 8,4 km/h (2 Bft) 100,00 %
22.04.2017 02:38 10,3 C 10,0 C 8,9 C 87 % 0 lf 1023,9 hPa 0,0 l/m 0 min 0 min 0 W/m 10,5 km/h (2 Bft) 97,87 %
22.04.2017 02:40 10,3 C 10,0 C 8,9 C 87 % 0 lf 1023,9 hPa 0,0 l/m 0 min 0 min 0 W/m 16,7 km/h (3 Bft) 95,74 %
22.04.2017 02:42 10,3 C 10,0 C 8,9 C 87 % 0 lf 1023,8 hPa 0,0 l/m 0 min 0 min 0 W/m 14,6 km/h (3 Bft) 100,00 %
22.04.2017 02:44 10,3 C 10,0 C 8,9 C 87 % 0 lf 1023,8 hPa 0,0 l/m 0 min 0 min 0 W/m 10,5 km/h (2 Bft) 97,83 %
22.04.2017 02:46 10,2 C 10,0 C 8,9 C 87 % 1 lf 1023,8 hPa 0,0 l/m 0 min 0 min 0 W/m 10,5 km/h (2 Bft) 100,00 %
22.04.2017 02:48 10,2 C 10,0 C 8,9 C 87 % 0 lf 1023,8 hPa 0,0 l/m 0 min 0 min 0 W/m 10,5 km/h (2 Bft) 97,87 %
22.04.2017 02:50 10,2 C 10,0 C 8,9 C 87 % 0 lf 1023,8 hPa 0,0 l/m 0 min 0 min 0 W/m 14,6 km/h (3 Bft) 93,62 %
22.04.2017 02:52 10,2 C 10,0 C 8,9 C 87 % 0 lf 1023,7 hPa 0,0 l/m 0 min 0 min 0 W/m 12,6 km/h (3 Bft) 100,00 %
22.04.2017 02:54 10,2 C 10,0 C 8,9 C 87 % 3 lf 1023,7 hPa 0,0 l/m 0 min 0 min 0 W/m 18,8 km/h (3 Bft) 100,00 %
22.04.2017 02:56 10,2 C 10,0 C 8,9 C 87 % 3 lf 1023,7 hPa 0,0 l/m 0 min 0 min 0 W/m 18,8 km/h (3 Bft) 97,83 %
22.04.2017 02:58 10,2 C 10,0 C 8,9 C 87 % 2 lf 1023,7 hPa 0,0 l/m 0 min 0 min 0 W/m 16,7 km/h (3 Bft) 97,87 %
22.04.2017 03:00 10,2 C 10,0 C 8,9 C 87 % 0 lf 1023,6 hPa 0,0 l/m 0 min 0 min 0 W/m 18,8 km/h (3 Bft) 95,74 %
22.04.2017 03:02 10,2 C 10,0 C 8,9 C 87 % 0 lf 1023,7 hPa 0,0 l/m 0 min 0 min 0 W/m 16,7 km/h (3 Bft) 95,74 %
22.04.2017 03:04 10,2 C 10,6 C 8,9 C 87 % 0 lf 1023,6 hPa 0,0 l/m 0 min 0 min 0 W/m 10,5 km/h (2 Bft) 95,74 %
22.04.2017 03:06 10,2 C 10,0 C 8,9 C 87 % 0 lf 1023,6 hPa 0,0 l/m 0 min 0 min 0 W/m 12,6 km/h (3 Bft) 97,83 %
22.04.2017 03:08 10,2 C 10,0 C 8,9 C 87 % 0 lf 1023,7 hPa 0,0 l/m 0 min 0 min 0 W/m 12,6 km/h (3 Bft) 95,74 %
22.04.2017 03:10 10,2 C 10,0 C 8,9 C 87 % 0 lf 1023,6 hPa 0,0 l/m 0 min 0 min 0 W/m 12,6 km/h (3 Bft) 97,87 %
22.04.2017 03:12 10,2 C 10,0 C 8,9 C 87 % 0 lf 1023,6 hPa 0,0 l/m 0 min 0 min 0 W/m 14,6 km/h (3 Bft) 97,87 %
22.04.2017 03:14 10,2 C 10,0 C 8,9 C 87 % 0 lf 1023,6 hPa 0,0 l/m 0 min 0 min 0 W/m 12,6 km/h (3 Bft) 97,87 %
22.04.2017 03:16 10,2 C 10,0 C 8,9 C 87 % 0 lf 1023,5 hPa 0,0 l/m 0 min 0 min 0 W/m 14,6 km/h (3 Bft) 100,00 %
22.04.2017 03:18 10,2 C 10,0 C 8,9 C 87 % 1 lf 1023,5 hPa 0,0 l/m 0 min 0 min 0 W/m 14,6 km/h (3 Bft) 97,83 %
22.04.2017 03:20 10,2 C 10,0 C 8,9 C 87 % 0 lf 1023,6 hPa 0,0 l/m 0 min 0 min 0 W/m 12,6 km/h (3 Bft) 95,74 %
22.04.2017 03:22 10,2 C 10,0 C 8,9 C 87 % 0 lf 1023,6 hPa 0,0 l/m 0 min 0 min 0 W/m 14,6 km/h (3 Bft) 95,74 %
22.04.2017 03:24 10,2 C 10,0 C 8,9 C 87 % 0 lf 1023,5 hPa 0,0 l/m 0 min 0 min 0 W/m 12,6 km/h (3 Bft) 97,87 %
22.04.2017 03:26 10,2 C 10,0 C 8,9 C 87 % 2 lf 1023,5 hPa 0,0 l/m 0 min 0 min 0 W/m 12,6 km/h (3 Bft) 95,74 %
22.04.2017 03:28 10,2 C 10,0 C 8,9 C 87 % 0 lf 1023,5 hPa 0,0 l/m 0 min 0 min 0 W/m 14,6 km/h (3 Bft) 100,00 %
22.04.2017 03:30 10,2 C 10,0 C 8,9 C 87 % 4 lf 1023,4 hPa 0,0 l/m 0 min 0 min 0 W/m 16,7 km/h (3 Bft) 97,83 %
22.04.2017 03:33 10,1 C 10,0 C 8,3 C 87 % 3 lf 1023,4 hPa 0,0 l/m 0 min 3 min 0 W/m 12,6 km/h (3 Bft) 97,18 %
22.04.2017 03:34 10,1 C 10,0 C 8,3 C 87 % 5 lf 1023,4 hPa 0,0 l/m 0 min 1 min 0 W/m 8,4 km/h (2 Bft) 95,65 %
22.04.2017 03:36 10,1 C 10,0 C 8,3 C 88 % 14 lf 1023,4 hPa 0,0 l/m 0 min 2 min 0 W/m 10,5 km/h (2 Bft) 97,87 %
22.04.2017 03:38 10,1 C 10,0 C 8,3 C 88 % 15 lf 1023,4 hPa 0,0 l/m 0 min 2 min 0 W/m 12,6 km/h (3 Bft) 97,87 %
22.04.2017 03:40 10,1 C 9,4 C 7,8 C 88 % 15 lf 1023,4 hPa 0,0 l/m 0 min 2 min 0 W/m 8,4 km/h (2 Bft) 97,87 %
22.04.2017 03:42 10,1 C 9,4 C 7,8 C 88 % 15 lf 1023,3 hPa 0,0 l/m 0 min 2 min 0 W/m 10,5 km/h (2 Bft) 93,48 %
22.04.2017 03:44 10,1 C 9,4 C 7,8 C 88 % 15 lf 1023,3 hPa 0,0 l/m 0 min 2 min 0 W/m 12,6 km/h (3 Bft) 91,49 %
22.04.2017 03:46 10,1 C 9,4 C 7,8 C 88 % 15 lf 1023,3 hPa 0,0 l/m 0 min 2 min 0 W/m 10,5 km/h (2 Bft) 95,74 %
22.04.2017 03:48 10,1 C 9,4 C 7,8 C 88 % 15 lf 1023,3 hPa 0,0 l/m 0 min 2 min 0 W/m 12,6 km/h (3 Bft) 91,49 %
22.04.2017 03:50 10,1 C 9,4 C 7,8 C 88 % 15 lf 1023,3 hPa 0,0 l/m 0 min 2 min 0 W/m 10,5 km/h (2 Bft) 95,74 %
22.04.2017 03:52 10,1 C 9,4 C 7,8 C 88 % 15 lf 1023,3 hPa 0,0 l/m 0 min 0 min 0 W/m 10,5 km/h (2 Bft) 95,74 %
22.04.2017 03:54 10,1 C 9,4 C 7,8 C 88 % 15 lf 1023,2 hPa 0,0 l/m 0 min 2 min 0 W/m 14,6 km/h (3 Bft) 95,65 %
22.04.2017 03:56 10,1 C 9,4 C 7,8 C 88 % 15 lf 1023,3 hPa 0,0 l/m 0 min 2 min 0 W/m 12,6 km/h (3 Bft) 95,74 %
22.04.2017 03:58 10,0 C 9,4 C 7,8 C 88 % 15 lf 1023,2 hPa 0,0 l/m 0 min 2 min 0 W/m 6,3 km/h (2 Bft) 89,36 %
22.04.2017 04:00 10,0 C 9,4 C 7,8 C 88 % 15 lf 1023,2 hPa 0,0 l/m 0 min 0 min 0 W/m 8,4 km/h (2 Bft) 93,62 %
22.04.2017 04:05 10,0 C 9,4 C 7,8 C 89 % 15 lf 1023,2 hPa 0,0 l/m 0 min 0 min 0 W/m 10,5 km/h (2 Bft) 97,73 %
22.04.2017 04:06 10,0 C 9,4 C 7,8 C 89 % 15 lf 1023,2 hPa 0,0 l/m 0 min 1 min 0 W/m 6,3 km/h (2 Bft) 91,30 %
22.04.2017 04:08 9,9 C 9,4 C 7,8 C 89 % 15 lf 1023,2 hPa 0,0 l/m 0 min 0 min 0 W/m 8,4 km/h (2 Bft) 93,62 %
22.04.2017 04:10 9,9 C 9,4 C 7,8 C 89 % 15 lf 1023,2 hPa 0,0 l/m 0 min 0 min 0 W/m 8,4 km/h (2 Bft) 91,49 %
22.04.2017 04:12 9,9 C 9,4 C 7,8 C 89 % 15 lf 1023,2 hPa 0,0 l/m 0 min 2 min 0 W/m 12,6 km/h (3 Bft) 91,49 %
22.04.2017 04:14 9,9 C 9,4 C 7,8 C 89 % 15 lf 1023,1 hPa 0,0 l/m 0 min 2 min 0 W/m 18,8 km/h (3 Bft) 93,62 %
22.04.2017 04:16 9,9 C 9,4 C 7,8 C 89 % 15 lf 1023,1 hPa 0,0 l/m 0 min 0 min 0 W/m 8,4 km/h (2 Bft) 93,62 %
22.04.2017 04:18 9,9 C 9,4 C 7,8 C 89 % 15 lf 1023,1 hPa 0,0 l/m 0 min 0 min 0 W/m 8,4 km/h (2 Bft) 93,48 %
22.04.2017 04:20 9,9 C 9,4 C 7,8 C 89 % 15 lf 1023,1 hPa 0,0 l/m 0 min 0 min 0 W/m 10,5 km/h (2 Bft) 89,36 %
22.04.2017 04:22 9,9 C 9,4 C 7,8 C 89 % 15 lf 1023,0 hPa 0,0 l/m 0 min 2 min 0 W/m 12,6 km/h (3 Bft) 93,62 %
22.04.2017 04:24 9,9 C 9,4 C 7,8 C 89 % 15 lf 1023,1 hPa 0,0 l/m 0 min 0 min 0 W/m 12,6 km/h (3 Bft) 93,62 %
22.04.2017 04:26 9,9 C 9,4 C 7,8 C 89 % 15 lf 1023,1 hPa 0,0 l/m 0 min 0 min 0 W/m 8,4 km/h (2 Bft) 93,62 %
22.04.2017 04:28 9,9 C 9,4 C 7,8 C 89 % 15 lf 1023,0 hPa 0,0 l/m 0 min 0 min 0 W/m 14,6 km/h (3 Bft) 89,13 %
22.04.2017 04:30 9,9 C 9,4 C 7,8 C 89 % 15 lf 1023,0 hPa 0,0 l/m 0 min 0 min 0 W/m 14,6 km/h (3 Bft) 93,62 %
22.04.2017 04:32 9,8 C 10,0 C 7,8 C 89 % 15 lf 1023,0 hPa 0,0 l/m 0 min 0 min 0 W/m 8,4 km/h (2 Bft) 93,62 %
22.04.2017 04:34 9,8 C 10,0 C 7,8 C 90 % 15 lf 1023,0 hPa 0,0 l/m 0 min 0 min 0 W/m 6,3 km/h (2 Bft) 91,49 %
22.04.2017 04:36 9,8 C 10,0 C 7,8 C 90 % 15 lf 1023,0 hPa 0,0 l/m 0 min 0 min 0 W/m 18,8 km/h (3 Bft) 95,74 %
22.04.2017 04:38 9,8 C 10,0 C 7,8 C 90 % 15 lf 1023,0 hPa 0,0 l/m 0 min 0 min 0 W/m 10,5 km/h (2 Bft) 93,62 %
22.04.2017 04:40 9,8 C 10,0 C 7,8 C 90 % 15 lf 1023,0 hPa 0,0 l/m 0 min 0 min 0 W/m 14,6 km/h (3 Bft) 93,48 %
22.04.2017 04:42 9,8 C 10,0 C 7,8 C 90 % 15 lf 1023,0 hPa 0,0 l/m 0 min 0 min 0 W/m 10,5 km/h (2 Bft) 97,87 %
22.04.2017 04:44 9,8 C 10,0 C 7,8 C 90 % 15 lf 1023,0 hPa 0,0 l/m 0 min 0 min 0 W/m 16,7 km/h (3 Bft) 95,74 %
22.04.2017 04:46 9,8 C 10,0 C 7,8 C 90 % 15 lf 1022,9 hPa 0,0 l/m 0 min 2 min 0 W/m 16,7 km/h (3 Bft) 97,87 %
22.04.2017 04:48 9,8 C 10,0 C 7,8 C 90 % 15 lf 1022,9 hPa 0,0 l/m 0 min 0 min 0 W/m 23,0 km/h (4 Bft) 97,87 %
22.04.2017 04:50 9,8 C 9,4 C 7,8 C 90 % 15 lf 1022,9 hPa 0,0 l/m 0 min 2 min 0 W/m 16,7 km/h (3 Bft) 95,74 %
22.04.2017 04:52 9,8 C 9,4 C 7,8 C 90 % 15 lf 1022,9 hPa 0,0 l/m 0 min 2 min 0 W/m 18,8 km/h (3 Bft) 100,00 %
22.04.2017 04:54 9,8 C 9,4 C 7,8 C 90 % 15 lf 1022,8 hPa 0,0 l/m 0 min 2 min 0 W/m 20,9 km/h (4 Bft) 95,74 %
22.04.2017 04:56 9,8 C 9,4 C 7,8 C 90 % 15 lf 1022,8 hPa 0,0 l/m 0 min 2 min 0 W/m 14,6 km/h (3 Bft) 97,87 %
22.04.2017 04:58 9,8 C 9,4 C 7,8 C 90 % 15 lf 1022,8 hPa 0,0 l/m 0 min 2 min 0 W/m 16,7 km/h (3 Bft) 97,87 %
22.04.2017 05:00 9,8 C 9,4 C 7,8 C 90 % 15 lf 1022,8 hPa 0,0 l/m 0 min 2 min 0 W/m 18,8 km/h (3 Bft) 93,62 %
22.04.2017 05:02 9,8 C 8,9 C 7,8 C 90 % 15 lf 1022,9 hPa 0,0 l/m 0 min 2 min 0 W/m 18,8 km/h (3 Bft) 97,87 %
22.04.2017 05:04 9,7 C 8,9 C 7,8 C 91 % 15 lf 1023,0 hPa 0,0 l/m 0 min 2 min 0 W/m 18,8 km/h (3 Bft) 97,83 %
22.04.2017 05:06 9,7 C 8,3 C 7,2 C 91 % 15 lf 1023,3 hPa 0,0 l/m 0 min 2 min 0 W/m 31,4 km/h (5 Bft) 97,87 %
22.04.2017 05:08 9,5 C 7,8 C 6,7 C 90 % 15 lf 1023,3 hPa 0,0 l/m 0 min 2 min 0 W/m 27,2 km/h (4 Bft) 97,87 %
22.04.2017 05:10 9,2 C 7,2 C 6,1 C 90 % 15 lf 1023,3 hPa 0,2 l/m 0 min 2 min 0 W/m 39,7 km/h (6 Bft) 97,87 %
22.04.2017 05:12 8,9 C 7,2 C 5,6 C 89 % 15 lf 1023,4 hPa 0,0 l/m 0 min 2 min 0 W/m 37,7 km/h (5 Bft) 95,74 %
22.04.2017 05:14 8,6 C 6,7 C 5,6 C 89 % 15 lf 1023,4 hPa 0,0 l/m 0 min 2 min 0 W/m 31,4 km/h (5 Bft) 97,87 %
22.04.2017 05:16 8,3 C 6,7 C 5,0 C 89 % 15 lf 1023,5 hPa 0,0 l/m 0 min 2 min 0 W/m 31,4 km/h (5 Bft) 97,83 %
22.04.2017 05:18 8,0 C 6,7 C 5,0 C 88 % 15 lf 1023,5 hPa 0,0 l/m 0 min 2 min 0 W/m 27,2 km/h (4 Bft) 97,87 %
22.04.2017 05:20 7,7 C 6,7 C 5,0 C 88 % 15 lf 1023,6 hPa 0,0 l/m 0 min 2 min 0 W/m 29,3 km/h (5 Bft) 97,87 %
22.04.2017 05:22 7,6 C 6,7 C 5,0 C 89 % 15 lf 1023,6 hPa 0,2 l/m 0 min 2 min 0 W/m 18,8 km/h (3 Bft) 100,00 %
22.04.2017 05:24 7,4 C 6,7 C 5,0 C 89 % 15 lf 1023,6 hPa 0,0 l/m 0 min 2 min 0 W/m 27,2 km/h (4 Bft) 100,00 %
22.04.2017 05:26 7,3 C 6,7 C 5,0 C 89 % 15 lf 1023,6 hPa 0,0 l/m 0 min 2 min 0 W/m 18,8 km/h (3 Bft) 100,00 %
22.04.2017 05:28 7,2 C 6,7 C 5,0 C 89 % 15 lf 1023,7 hPa 0,0 l/m 0 min 2 min 0 W/m 20,9 km/h (4 Bft) 100,00 %
22.04.2017 05:30 7,1 C 6,7 C 5,0 C 90 % 15 lf 1023,7 hPa 0,0 l/m 0 min 2 min 0 W/m 20,9 km/h (4 Bft) 100,00 %
22.04.2017 05:32 7,1 C 6,7 C 5,0 C 90 % 15 lf 1023,8 hPa 0,0 l/m 0 min 2 min 0 W/m 16,7 km/h (3 Bft) 100,00 %
22.04.2017 05:34 7,0 C 6,1 C 5,0 C 90 % 15 lf 1023,7 hPa 0,0 l/m 0 min 0 min 0 W/m 14,6 km/h (3 Bft) 100,00 %
22.04.2017 05:36 6,9 C 6,1 C 5,0 C 90 % 15 lf 1023,7 hPa 0,0 l/m 0 min 2 min 0 W/m 23,0 km/h (4 Bft) 100,00 %
22.04.2017 05:38 6,9 C 6,1 C 5,0 C 91 % 15 lf 1023,7 hPa 0,0 l/m 0 min 0 min 0 W/m 18,8 km/h (3 Bft) 97,83 %
22.04.2017 05:40 6,8 C 6,1 C 5,0 C 91 % 15 lf 1023,7 hPa 0,0 l/m 0 min 0 min 0 W/m 20,9 km/h (4 Bft) 100,00 %
22.04.2017 05:42 6,8 C 6,1 C 5,0 C 91 % 15 lf 1023,7 hPa 0,0 l/m 0 min 0 min 0 W/m 27,2 km/h (4 Bft) 100,00 %
22.04.2017 05:44 6,7 C 6,1 C 5,0 C 91 % 15 lf 1023,7 hPa 0,0 l/m 0 min 2 min 0 W/m 18,8 km/h (3 Bft) 100,00 %
22.04.2017 05:46 6,7 C 6,1 C 5,0 C 91 % 15 lf 1023,7 hPa 0,0 l/m 0 min 2 min 0 W/m 27,2 km/h (4 Bft) 100,00 %
22.04.2017 05:48 6,7 C 6,1 C 5,0 C 91 % 15 lf 1023,8 hPa 0,0 l/m 0 min 2 min 0 W/m 16,7 km/h (3 Bft) 100,00 %
22.04.2017 05:50 6,6 C 6,7 C 5,0 C 92 % 15 lf 1023,8 hPa 0,0 l/m 0 min 0 min 0 W/m 18,8 km/h (3 Bft) 100,00 %
22.04.2017 05:52 6,6 C 6,1 C 5,0 C 92 % 15 lf 1023,9 hPa 0,0 l/m 0 min 2 min 0 W/m 14,6 km/h (3 Bft) 100,00 %
22.04.2017 05:54 6,6 C 6,1 C 5,0 C 92 % 15 lf 1023,9 hPa 0,0 l/m 0 min 2 min 0 W/m 20,9 km/h (4 Bft) 100,00 %
22.04.2017 05:56 6,6 C 6,1 C 5,0 C 92 % 15 lf 1023,9 hPa 0,0 l/m 0 min 0 min 0 W/m 20,9 km/h (4 Bft) 97,87 %
22.04.2017 05:58 6,6 C 6,1 C 5,0 C 92 % 15 lf 1023,9 hPa 0,0 l/m 0 min 2 min 0 W/m 23,0 km/h (4 Bft) 100,00 %
22.04.2017 06:00 6,5 C 6,1 C 5,0 C 92 % 15 lf 1023,9 hPa 0,0 l/m 0 min 2 min 0 W/m 23,0 km/h (4 Bft) 100,00 %
22.04.2017 06:02 6,4 C 6,1 C 4,4 C 92 % 15 lf 1024,0 hPa 0,0 l/m 0 min 2 min 0 W/m 20,9 km/h (4 Bft) 100,00 %
22.04.2017 06:04 6,4 C 6,1 C 4,4 C 92 % 15 lf 1024,0 hPa 0,0 l/m 0 min 2 min 0 W/m 20,9 km/h (4 Bft) 97,87 %
22.04.2017 06:06 6,4 C 6,1 C 4,4 C 93 % 15 lf 1024,1 hPa 0,0 l/m 0 min 2 min 0 W/m 25,1 km/h (4 Bft) 100,00 %
22.04.2017 06:08 6,3 C 6,1 C 4,4 C 93 % 15 lf 1024,0 hPa 0,0 l/m 0 min 2 min 0 W/m 25,1 km/h (4 Bft) 100,00 %
22.04.2017 06:10 6,3 C 6,1 C 4,4 C 93 % 15 lf 1024,0 hPa 0,0 l/m 0 min 2 min 0 W/m 18,8 km/h (3 Bft) 95,74 %
22.04.2017 06:12 6,2 C 6,1 C 4,4 C 93 % 15 lf 1024,0 hPa 0,0 l/m 0 min 2 min 0 W/m 18,8 km/h (3 Bft) 97,87 %
22.04.2017 06:14 6,2 C 6,1 C 4,4 C 93 % 15 lf 1024,0 hPa 0,2 l/m 0 min 2 min 0 W/m 25,1 km/h (4 Bft) 97,83 %
22.04.2017 06:16 6,1 C 6,1 C 4,4 C 93 % 15 lf 1024,1 hPa 0,0 l/m 0 min 2 min 0 W/m 18,8 km/h (3 Bft) 100,00 %
22.04.2017 06:18 6,1 C 5,6 C 4,4 C 93 % 15 lf 1024,1 hPa 0,0 l/m 0 min 2 min 0 W/m 16,7 km/h (3 Bft) 97,87 %
22.04.2017 06:20 6,0 C 5,6 C 4,4 C 93 % 15 lf 1024,0 hPa 0,0 l/m 0 min 2 min 0 W/m 14,6 km/h (3 Bft) 97,87 %
22.04.2017 06:22 6,0 C 5,6 C 4,4 C 93 % 15 lf 1024,1 hPa 0,0 l/m 0 min 2 min 0 W/m 12,6 km/h (3 Bft) 100,00 %
22.04.2017 06:24 5,9 C 5,6 C 4,4 C 93 % 15 lf 1024,2 hPa 0,0 l/m 0 min 2 min 0 W/m 12,6 km/h (3 Bft) 97,87 %
22.04.2017 06:26 5,9 C 5,6 C 4,4 C 93 % 15 lf 1024,1 hPa 0,2 l/m 0 min 2 min 4 W/m 12,6 km/h (3 Bft) 97,83 %
22.04.2017 06:28 5,9 C 5,6 C 4,4 C 93 % 15 lf 1024,1 hPa 0,0 l/m 0 min 2 min 5 W/m 8,4 km/h (2 Bft) 100,00 %
22.04.2017 06:30 5,9 C 5,6 C 4,4 C 93 % 15 lf 1024,1 hPa 0,0 l/m 0 min 2 min 5 W/m 12,6 km/h (3 Bft) 100,00 %
22.04.2017 06:32 5,9 C 5,6 C 4,4 C 93 % 15 lf 1024,2 hPa 0,0 l/m 0 min 2 min 5 W/m 8,4 km/h (2 Bft) 97,87 %
22.04.2017 06:34 5,8 C 5,6 C 4,4 C 93 % 15 lf 1024,2 hPa 0,0 l/m 0 min 0 min 5 W/m 12,6 km/h (3 Bft) 100,00 %
22.04.2017 06:36 5,8 C 5,6 C 4,4 C 93 % 15 lf 1024,2 hPa 0,0 l/m 0 min 0 min 5 W/m 14,6 km/h (3 Bft) 97,87 %
22.04.2017 06:38 5,8 C 5,6 C 4,4 C 93 % 15 lf 1024,3 hPa 0,0 l/m 0 min 2 min 7 W/m 8,4 km/h (2 Bft) 97,87 %
22.04.2017 06:40 5,8 C 5,6 C 4,4 C 93 % 15 lf 1024,3 hPa 0,0 l/m 0 min 2 min 7 W/m 8,4 km/h (2 Bft) 97,83 %
22.04.2017 06:42 5,8 C 5,6 C 4,4 C 94 % 15 lf 1024,3 hPa 0,0 l/m 0 min 2 min 7 W/m 6,3 km/h (2 Bft) 89,36 %
22.04.2017 06:44 5,8 C 5,6 C 4,4 C 94 % 15 lf 1024,4 hPa 0,0 l/m 0 min 2 min 7 W/m 6,3 km/h (2 Bft) 93,62 %
22.04.2017 06:46 5,8 C 5,6 C 4,4 C 94 % 15 lf 1024,3 hPa 0,0 l/m 0 min 2 min 7 W/m 8,4 km/h (2 Bft) 93,62 %
22.04.2017 06:48 5,8 C 5,6 C 4,4 C 94 % 15 lf 1024,4 hPa 0,0 l/m 0 min 2 min 9 W/m 10,5 km/h (2 Bft) 93,62 %
22.04.2017 06:50 5,8 C 5,6 C 4,4 C 94 % 15 lf 1024,4 hPa 0,0 l/m 0 min 2 min 9 W/m 12,6 km/h (3 Bft) 93,62 %
22.04.2017 06:52 5,8 C 5,6 C 4,4 C 94 % 15 lf 1024,4 hPa 0,0 l/m 0 min 2 min 9 W/m 8,4 km/h (2 Bft) 91,30 %
22.04.2017 06:54 5,8 C 5,6 C 4,4 C 94 % 15 lf 1024,5 hPa 0,0 l/m 0 min 2 min 11 W/m 16,7 km/h (3 Bft) 93,62 %
22.04.2017 06:56 5,8 C 5,6 C 4,4 C 94 % 15 lf 1024,5 hPa 0,0 l/m 0 min 2 min 11 W/m 16,7 km/h (3 Bft) 93,62 %
22.04.2017 06:58 5,8 C 5,6 C 4,4 C 94 % 15 lf 1024,5 hPa 0,0 l/m 0 min 2 min 11 W/m 10,5 km/h (2 Bft) 93,62 %
22.04.2017 07:00 5,8 C 5,6 C 4,4 C 94 % 15 lf 1024,5 hPa 0,0 l/m 0 min 2 min 12 W/m 10,5 km/h (2 Bft) 91,49 %
22.04.2017 07:02 5,7 C 5,6 C 4,4 C 94 % 15 lf 1024,4 hPa 0,2 l/m 0 min 2 min 13 W/m 6,3 km/h (2 Bft) 91,30 %
22.04.2017 07:04 5,7 C 5,6 C 4,4 C 94 % 15 lf 1024,4 hPa 0,0 l/m 0 min 2 min 14 W/m 4,2 km/h (1 Bft) 93,62 %
22.04.2017 07:06 5,7 C 5,6 C 4,4 C 94 % 15 lf 1024,5 hPa 0,0 l/m 0 min 2 min 16 W/m 6,3 km/h (2 Bft) 91,49 %
22.04.2017 07:08 5,7 C 5,6 C 4,4 C 94 % 15 lf 1024,5 hPa 0,0 l/m 0 min 2 min 16 W/m 6,3 km/h (2 Bft) 93,62 %
22.04.2017 07:10 5,7 C 5,6 C 5,0 C 94 % 15 lf 1024,5 hPa 0,0 l/m 0 min 2 min 16 W/m 8,4 km/h (2 Bft) 91,49 %
22.04.2017 07:12 5,7 C 5,6 C 5,0 C 94 % 15 lf 1024,4 hPa 0,0 l/m 0 min 2 min 16 W/m 6,3 km/h (2 Bft) 93,62 %
22.04.2017 07:14 5,8 C 5,6 C 4,4 C 94 % 15 lf 1024,4 hPa 0,0 l/m 0 min 2 min 17 W/m 8,4 km/h (2 Bft) 95,65 %
22.04.2017 07:16 5,8 C 5,6 C 5,0 C 94 % 15 lf 1024,4 hPa 0,0 l/m 0 min 2 min 17 W/m 4,2 km/h (1 Bft) 91,49 %
22.04.2017 07:18 5,8 C 5,6 C 4,4 C 94 % 15 lf 1024,5 hPa 0,0 l/m 0 min 0 min 16 W/m 10,5 km/h (2 Bft) 89,36 %
22.04.2017 07:20 5,8 C 5,6 C 4,4 C 94 % 15 lf 1024,6 hPa 0,0 l/m 0 min 2 min 16 W/m 8,4 km/h (2 Bft) 97,87 %
22.04.2017 07:22 5,8 C 5,6 C 4,4 C 94 % 15 lf 1024,5 hPa 0,0 l/m 0 min 2 min 17 W/m 8,4 km/h (2 Bft) 95,74 %
22.04.2017 07:24 5,8 C 5,6 C 5,0 C 94 % 15 lf 1024,6 hPa 0,0 l/m 0 min 2 min 18 W/m 8,4 km/h (2 Bft) 95,74 %
22.04.2017 07:26 5,8 C 6,1 C 5,0 C 94 % 15 lf 1024,6 hPa 0,0 l/m 0 min 2 min 18 W/m 10,5 km/h (2 Bft) 93,48 %
22.04.2017 07:28 5,8 C 6,1 C 5,0 C 94 % 15 lf 1024,6 hPa 0,0 l/m 0 min 2 min 19 W/m 8,4 km/h (2 Bft) 95,74 %
22.04.2017 07:30 5,8 C 6,1 C 5,0 C 94 % 15 lf 1024,6 hPa 0,0 l/m 0 min 0 min 20 W/m 8,4 km/h (2 Bft) 97,87 %
22.04.2017 07:32 5,8 C 6,1 C 5,0 C 94 % 15 lf 1024,7 hPa 0,0 l/m 0 min 2 min 21 W/m 8,4 km/h (2 Bft) 100,00 %
22.04.2017 07:34 5,8 C 6,1 C 5,0 C 94 % 15 lf 1024,7 hPa 0,0 l/m 0 min 2 min 21 W/m 10,5 km/h (2 Bft) 100,00 %
22.04.2017 07:36 5,9 C 6,1 C 5,0 C 94 % 15 lf 1024,7 hPa 0,0 l/m 0 min 2 min 23 W/m 8,4 km/h (2 Bft) 97,87 %
22.04.2017 07:38 5,9 C 6,1 C 5,0 C 94 % 15 lf 1024,7 hPa 0,0 l/m 0 min 0 min 25 W/m 10,5 km/h (2 Bft) 97,87 %
22.04.2017 07:40 5,9 C 6,1 C 5,0 C 94 % 15 lf 1024,7 hPa 0,0 l/m 0 min 0 min 26 W/m 8,4 km/h (2 Bft) 97,83 %
22.04.2017 07:42 5,9 C 6,1 C 5,0 C 95 % 15 lf 1024,7 hPa 0,0 l/m 0 min 2 min 27 W/m 10,5 km/h (2 Bft) 97,87 %
22.04.2017 07:44 5,9 C 6,1 C 5,0 C 95 % 15 lf 1024,7 hPa 0,2 l/m 0 min 2 min 31 W/m 6,3 km/h (2 Bft) 95,74 %
22.04.2017 07:46 5,9 C 6,1 C 5,0 C 95 % 15 lf 1024,6 hPa 0,0 l/m 0 min 2 min 33 W/m 8,4 km/h (2 Bft) 95,74 %
22.04.2017 07:48 5,9 C 6,1 C 5,0 C 95 % 15 lf 1024,6 hPa 0,0 l/m 0 min 2 min 36 W/m 4,2 km/h (1 Bft) 97,87 %
22.04.2017 07:50 5,9 C 6,1 C 5,0 C 95 % 15 lf 1024,6 hPa 0,0 l/m 0 min 0 min 40 W/m 4,2 km/h (1 Bft) 97,83 %
22.04.2017 07:52 5,9 C 6,1 C 5,0 C 95 % 15 lf 1024,6 hPa 0,0 l/m 0 min 0 min 42 W/m 8,4 km/h (2 Bft) 95,74 %
22.04.2017 07:54 5,9 C 6,1 C 5,0 C 95 % 15 lf 1024,6 hPa 0,0 l/m 0 min 0 min 43 W/m 12,6 km/h (3 Bft) 97,87 %
22.04.2017 07:56 5,9 C 6,1 C 5,0 C 95 % 15 lf 1024,6 hPa 0,0 l/m 0 min 0 min 41 W/m 8,4 km/h (2 Bft) 93,62 %
22.04.2017 07:58 5,9 C 6,1 C 5,0 C 95 % 15 lf 1024,7 hPa 0,0 l/m 0 min 0 min 43 W/m 10,5 km/h (2 Bft) 95,74 %
22.04.2017 08:00 6,0 C 6,1 C 5,0 C 95 % 15 lf 1024,7 hPa 0,0 l/m 0 min 0 min 48 W/m 10,5 km/h (2 Bft) 97,87 %
22.04.2017 08:02 6,0 C 6,1 C 5,0 C 95 % 15 lf 1024,7 hPa 0,0 l/m 0 min 0 min 51 W/m 10,5 km/h (2 Bft) 97,83 %
22.04.2017 08:04 6,0 C 6,1 C 5,6 C 95 % 15 lf 1024,7 hPa 0,0 l/m 0 min 0 min 54 W/m 10,5 km/h (2 Bft) 97,87 %
22.04.2017 08:06 6,0 C 6,1 C 5,6 C 95 % 15 lf 1024,7 hPa 0,0 l/m 0 min 0 min 54 W/m 8,4 km/h (2 Bft) 95,74 %
22.04.2017 08:08 6,0 C 6,1 C 5,6 C 95 % 15 lf 1024,7 hPa 0,0 l/m 0 min 0 min 61 W/m 10,5 km/h (2 Bft) 97,87 %
22.04.2017 08:10 6,1 C 6,7 C 5,6 C 95 % 15 lf 1024,7 hPa 0,0 l/m 0 min 0 min 63 W/m 8,4 km/h (2 Bft) 97,87 %
22.04.2017 08:12 6,1 C 6,7 C 5,6 C 95 % 15 lf 1024,7 hPa 0,0 l/m 0 min 2 min 65 W/m 10,5 km/h (2 Bft) 93,62 %
22.04.2017 08:14 6,1 C 6,7 C 5,6 C 95 % 15 lf 1024,7 hPa 0,0 l/m 0 min 0 min 75 W/m 8,4 km/h (2 Bft) 97,83 %
22.04.2017 08:16 6,1 C 6,7 C 5,6 C 95 % 15 lf 1024,7 hPa 0,0 l/m 0 min 0 min 83 W/m 10,5 km/h (2 Bft) 97,87 %
22.04.2017 08:18 6,2 C 6,7 C 5,6 C 95 % 15 lf 1024,7 hPa 0,0 l/m 0 min 0 min 78 W/m 8,4 km/h (2 Bft) 93,62 %
22.04.2017 08:20 6,2 C 6,7 C 5,6 C 95 % 15 lf 1024,7 hPa 0,0 l/m 0 min 0 min 77 W/m 10,5 km/h (2 Bft) 95,74 %
22.04.2017 08:22 6,2 C 6,7 C 5,6 C 95 % 15 lf 1024,7 hPa 0,0 l/m 0 min 0 min 76 W/m 10,5 km/h (2 Bft) 97,87 %
22.04.2017 08:24 6,2 C 6,7 C 5,6 C 95 % 15 lf 1024,8 hPa 0,0 l/m 0 min 0 min 75 W/m 12,6 km/h (3 Bft) 97,87 %
22.04.2017 08:26 6,2 C 6,7 C 5,6 C 95 % 15 lf 1024,8 hPa 0,0 l/m 0 min 0 min 76 W/m 12,6 km/h (3 Bft) 97,83 %
22.04.2017 08:28 6,3 C 6,7 C 5,6 C 95 % 15 lf 1024,8 hPa 0,0 l/m 0 min 0 min 71 W/m 8,4 km/h (2 Bft) 93,62 %
22.04.2017 08:30 6,3 C 6,7 C 5,6 C 95 % 15 lf 1024,8 hPa 0,0 l/m 0 min 0 min 64 W/m 6,3 km/h (2 Bft) 95,74 %
22.04.2017 08:32 6,3 C 6,7 C 5,6 C 95 % 15 lf 1024,8 hPa 0,0 l/m 0 min 0 min 60 W/m 12,6 km/h (3 Bft) 95,74 %
22.04.2017 08:34 6,3 C 6,7 C 5,6 C 95 % 15 lf 1024,7 hPa 0,0 l/m 0 min 0 min 65 W/m 8,4 km/h (2 Bft) 95,74 %
22.04.2017 08:36 6,3 C 6,7 C 5,6 C 95 % 15 lf 1024,8 hPa 0,0 l/m 0 min 0 min 81 W/m 10,5 km/h (2 Bft) 95,65 %
22.04.2017 08:38 6,3 C 6,7 C 6,1 C 95 % 15 lf 1024,7 hPa 0,0 l/m 0 min 0 min 94 W/m 10,5 km/h (2 Bft) 91,49 %
22.04.2017 08:40 6,3 C 6,7 C 6,1 C 95 % 15 lf 1024,8 hPa 0,0 l/m 0 min 0 min 103 W/m 8,4 km/h (2 Bft) 95,74 %
22.04.2017 08:42 6,4 C 7,2 C 6,1 C 95 % 15 lf 1024,8 hPa 0,0 l/m 0 min 0 min 106 W/m 14,6 km/h (3 Bft) 93,62 %
22.04.2017 08:44 6,4 C 7,2 C 6,1 C 96 % 15 lf 1024,8 hPa 0,0 l/m 0 min 0 min 104 W/m 8,4 km/h (2 Bft) 95,74 %
22.04.2017 08:46 6,4 C 7,2 C 6,1 C 96 % 15 lf 1024,9 hPa 0,0 l/m 0 min 0 min 103 W/m 8,4 km/h (2 Bft) 95,74 %
22.04.2017 08:48 6,4 C 7,2 C 6,1 C 96 % 15 lf 1024,9 hPa 0,0 l/m 0 min 0 min 117 W/m 10,5 km/h (2 Bft) 97,83 %
22.04.2017 08:50 6,4 C 7,2 C 6,7 C 96 % 15 lf 1024,9 hPa 0,0 l/m 0 min 0 min 121 W/m 6,3 km/h (2 Bft) 100,00 %
22.04.2017 08:52 6,4 C 7,2 C 6,1 C 96 % 15 lf 1024,8 hPa 0,0 l/m 0 min 0 min 112 W/m 8,4 km/h (2 Bft) 97,87 %
22.04.2017 08:54 6,5 C 7,8 C 6,7 C 96 % 15 lf 1024,8 hPa 0,0 l/m 0 min 0 min 110 W/m 8,4 km/h (2 Bft) 93,62 %
22.04.2017 08:56 6,6 C 7,8 C 6,7 C 96 % 15 lf 1024,9 hPa 0,0 l/m 0 min 0 min 116 W/m 8,4 km/h (2 Bft) 97,87 %
22.04.2017 08:58 6,6 C 7,8 C 6,7 C 96 % 15 lf 1024,8 hPa 0,0 l/m 0 min 0 min 127 W/m 10,5 km/h (2 Bft) 97,87 %
22.04.2017 09:00 6,6 C 7,8 C 6,7 C 96 % 15 lf 1024,8 hPa 0,0 l/m 0 min 0 min 139 W/m 6,3 km/h (2 Bft) 93,48 %
22.04.2017 09:02 6,7 C 8,3 C 6,7 C 96 % 15 lf 1024,8 hPa 0,0 l/m 0 min 0 min 145 W/m 10,5 km/h (2 Bft) 100,00 %
22.04.2017 09:04 6,7 C 8,3 C 6,7 C 96 % 15 lf 1024,9 hPa 0,0 l/m 0 min 0 min 149 W/m 8,4 km/h (2 Bft) 97,87 %
22.04.2017 09:06 6,8 C 8,3 C 7,2 C 96 % 15 lf 1024,8 hPa 0,0 l/m 0 min 0 min 146 W/m 10,5 km/h (2 Bft) 97,87 %
22.04.2017 09:08 6,8 C 8,3 C 7,2 C 96 % 15 lf 1024,9 hPa 0,0 l/m 0 min 0 min 140 W/m 12,6 km/h (3 Bft) 100,00 %
22.04.2017 09:10 6,8 C 8,3 C 6,7 C 96 % 15 lf 1024,9 hPa 0,0 l/m 0 min 0 min 142 W/m 6,3 km/h (2 Bft) 97,87 %
22.04.2017 09:12 6,8 C 8,3 C 7,2 C 96 % 15 lf 1024,9 hPa 0,0 l/m 0 min 0 min 159 W/m 6,3 km/h (2 Bft) 100,00 %
22.04.2017 09:14 6,9 C 8,9 C 7,2 C 96 % 15 lf 1024,9 hPa 0,0 l/m 0 min 0 min 165 W/m 12,6 km/h (3 Bft) 100,00 %
22.04.2017 09:16 6,9 C 8,9 C 7,2 C 96 % 15 lf 1024,9 hPa 0,0 l/m 0 min 0 min 172 W/m 8,4 km/h (2 Bft) 97,87 %
22.04.2017 09:18 7,0 C 8,9 C 7,2 C 96 % 15 lf 1024,9 hPa 0,0 l/m 0 min 0 min 185 W/m 10,5 km/h (2 Bft) 97,87 %
22.04.2017 09:20 7,0 C 9,4 C 7,2 C 96 % 15 lf 1024,9 hPa 0,0 l/m 0 min 0 min 207 W/m 12,6 km/h (3 Bft) 97,87 %
22.04.2017 09:22 7,0 C 9,4 C 7,2 C 96 % 15 lf 1024,9 hPa 0,0 l/m 2 min 0 min 227 W/m 18,8 km/h (3 Bft) 97,87 %
22.04.2017 09:24 7,1 C 10,6 C 7,2 C 96 % 15 lf 1024,9 hPa 0,0 l/m 2 min 0 min 296 W/m 12,6 km/h (3 Bft) 95,65 %
22.04.2017 09:26 7,1 C 12,2 C 7,8 C 96 % 15 lf 1024,9 hPa 0,0 l/m 2 min 0 min 394 W/m 12,6 km/h (3 Bft) 97,87 %
22.04.2017 09:28 7,2 C 12,2 C 7,8 C 96 % 15 lf 1024,9 hPa 0,0 l/m 2 min 0 min 359 W/m 16,7 km/h (3 Bft) 95,74 %
22.04.2017 09:30 7,3 C 12,2 C 8,3 C 96 % 15 lf 1024,9 hPa 0,0 l/m 2 min 0 min 306 W/m 14,6 km/h (3 Bft) 97,87 %
22.04.2017 09:32 7,3 C 11,7 C 7,8 C 96 % 14 lf 1024,9 hPa 0,0 l/m 2 min 0 min 296 W/m 20,9 km/h (4 Bft) 95,74 %
22.04.2017 09:34 7,4 C 11,7 C 7,8 C 96 % 13 lf 1024,9 hPa 0,0 l/m 2 min 0 min 291 W/m 12,6 km/h (3 Bft) 95,65 %
22.04.2017 09:36 7,4 C 11,1 C 8,3 C 96 % 11 lf 1024,9 hPa 0,0 l/m 2 min 0 min 261 W/m 20,9 km/h (4 Bft) 95,74 %
22.04.2017 09:38 7,5 C 11,7 C 7,8 C 96 % 8 lf 1024,9 hPa 0,0 l/m 2 min 0 min 263 W/m 20,9 km/h (4 Bft) 97,87 %
22.04.2017 09:40 7,5 C 11,7 C 8,3 C 96 % 4 lf 1024,9 hPa 0,0 l/m 2 min 0 min 322 W/m 10,5 km/h (2 Bft) 97,87 %
22.04.2017 09:42 7,6 C 12,8 C 8,9 C 96 % 4 lf 1024,9 hPa 0,0 l/m 2 min 0 min 402 W/m 8,4 km/h (2 Bft) 95,74 %
22.04.2017 09:44 7,7 C 13,9 C 8,9 C 96 % 2 lf 1024,9 hPa 0,0 l/m 2 min 0 min 484 W/m 14,6 km/h (3 Bft) 95,74 %
22.04.2017 09:46 7,7 C 13,9 C 8,9 C 96 % 1 lf 1024,9 hPa 0,0 l/m 2 min 0 min 414 W/m 29,3 km/h (5 Bft) 93,48 %
22.04.2017 09:48 7,7 C 12,8 C 7,8 C 96 % 1 lf 1024,9 hPa 0,0 l/m 2 min 0 min 371 W/m 29,3 km/h (5 Bft) 95,74 %
22.04.2017 09:50 7,7 C 12,2 C 7,8 C 96 % 0 lf 1024,9 hPa 0,0 l/m 2 min 0 min 355 W/m 25,1 km/h (4 Bft) 95,74 %
22.04.2017 09:52 7,7 C 11,7 C 7,8 C 96 % 0 lf 1024,9 hPa 0,0 l/m 2 min 0 min 302 W/m 16,7 km/h (3 Bft) 91,49 %
22.04.2017 09:54 7,8 C 12,2 C 8,3 C 95 % 0 lf 1024,9 hPa 0,0 l/m 2 min 0 min 299 W/m 23,0 km/h (4 Bft) 93,62 %
22.04.2017 09:56 7,8 C 11,7 C 7,8 C 95 % 0 lf 1024,9 hPa 0,0 l/m 0 min 0 min 250 W/m 18,8 km/h (3 Bft) 93,62 %
22.04.2017 09:58 7,9 C 11,1 C 7,8 C 95 % 0 lf 1024,9 hPa 0,0 l/m 0 min 0 min 220 W/m 16,7 km/h (3 Bft) 95,65 %
22.04.2017 10:00 7,9 C 11,1 C 8,3 C 94 % 0 lf 1024,9 hPa 0,0 l/m 0 min 0 min 245 W/m 23,0 km/h (4 Bft) 89,36 %
22.04.2017 10:02 7,9 C 10,6 C 7,8 C 94 % 0 lf 1024,9 hPa 0,0 l/m 0 min 0 min 238 W/m 20,9 km/h (4 Bft) 95,74 %
22.04.2017 10:04 8,0 C 10,6 C 7,8 C 94 % 0 lf 1024,9 hPa 0,0 l/m 0 min 0 min 232 W/m 12,6 km/h (3 Bft) 95,74 %
22.04.2017 10:06 8,1 C 10,6 C 7,8 C 93 % 0 lf 1024,9 hPa 0,0 l/m 0 min 0 min 221 W/m 16,7 km/h (3 Bft) 97,87 %
22.04.2017 10:08 8,1 C 11,1 C 8,3 C 93 % 0 lf 1024,9 hPa 0,0 l/m 0 min 0 min 211 W/m 18,8 km/h (3 Bft) 91,49 %
22.04.2017 10:10 8,1 C 10,6 C 7,8 C 93 % 0 lf 1024,9 hPa 0,0 l/m 0 min 0 min 194 W/m 27,2 km/h (4 Bft) 97,83 %
22.04.2017 10:12 8,2 C 10,6 C 7,8 C 92 % 0 lf 1024,9 hPa 0,0 l/m 0 min 0 min 171 W/m 20,9 km/h (4 Bft) 97,87 %
22.04.2017 10:14 8,2 C 10,6 C 7,2 C 91 % 0 lf 1024,9 hPa 0,0 l/m 0 min 0 min 161 W/m 10,5 km/h (2 Bft) 97,87 %
22.04.2017 10:16 8,2 C 11,1 C 7,8 C 91 % 0 lf 1024,9 hPa 0,0 l/m 0 min 0 min 240 W/m 16,7 km/h (3 Bft) 91,49 %
22.04.2017 10:18 8,2 C 12,8 C 8,9 C 90 % 0 lf 1024,9 hPa 0,0 l/m 0 min 0 min 180 W/m 14,6 km/h (3 Bft) 97,87 %
22.04.2017 10:20 8,3 C 15,6 C 11,1 C 90 % 0 lf 1024,9 hPa 0,0 l/m 2 min 0 min 583 W/m 16,7 km/h (3 Bft) 95,74 %
22.04.2017 10:22 8,4 C 18,9 C 12,8 C 90 % 0 lf 1024,9 hPa 0,0 l/m 2 min 0 min 700 W/m 29,3 km/h (5 Bft) 97,83 %
22.04.2017 10:24 8,5 C 20,0 C 12,8 C 90 % 0 lf 1024,9 hPa 0,0 l/m 2 min 0 min 704 W/m 23,0 km/h (4 Bft) 93,62 %
22.04.2017 10:26 8,7 C 18,3 C 12,2 C 90 % 0 lf 1025,0 hPa 0,0 l/m 2 min 0 min 689 W/m 16,7 km/h (3 Bft) 95,74 %
22.04.2017 10:28 8,7 C 16,1 C 10,6 C 89 % 0 lf 1024,9 hPa 0,0 l/m 2 min 0 min 440 W/m 20,9 km/h (4 Bft) 95,74 %
22.04.2017 10:30 8,7 C 15,0 C 10,0 C 87 % 0 lf 1024,9 hPa 0,0 l/m 2 min 0 min 313 W/m 27,2 km/h (4 Bft) 95,74 %
22.04.2017 10:32 8,8 C 16,1 C 11,1 C 86 % 0 lf 1024,9 hPa 0,0 l/m 2 min 0 min 333 W/m 29,3 km/h (5 Bft) 95,65 %
22.04.2017 10:34 8,9 C 16,7 C 12,2 C 85 % 0 lf 1024,9 hPa 0,0 l/m 2 min 0 min 805 W/m 27,2 km/h (4 Bft) 97,87 %
22.04.2017 10:36 9,1 C 18,9 C 12,8 C 85 % 0 lf 1024,8 hPa 0,0 l/m 2 min 0 min 788 W/m 25,1 km/h (4 Bft) 97,87 %
22.04.2017 10:38 9,2 C 18,9 C 12,8 C 84 % 0 lf 1024,9 hPa 0,0 l/m 2 min 0 min 724 W/m 31,4 km/h (5 Bft) 97,87 %
22.04.2017 10:40 9,3 C 20,6 C 13,3 C 83 % 0 lf 1024,9 hPa 0,0 l/m 2 min 0 min 755 W/m 16,7 km/h (3 Bft) 97,87 %
22.04.2017 10:42 9,5 C 21,7 C 15,0 C 82 % 0 lf 1024,9 hPa 0,0 l/m 2 min 0 min 837 W/m 10,5 km/h (2 Bft) 93,62 %
22.04.2017 10:44 9,7 C 20,6 C 15,0 C 82 % 0 lf 1024,9 hPa 0,0 l/m 2 min 0 min 652 W/m 20,9 km/h (4 Bft) 97,83 %
22.04.2017 10:46 9,8 C 20,0 C 14,4 C 81 % 0 lf 1024,9 hPa 0,0 l/m 2 min 0 min 856 W/m 16,7 km/h (3 Bft) 97,87 %
22.04.2017 10:48 9,9 C 17,8 C 12,8 C 79 % 0 lf 1025,0 hPa 0,0 l/m 2 min 0 min 496 W/m 25,1 km/h (4 Bft) 93,62 %
22.04.2017 10:50 9,9 C 15,0 C 11,1 C 78 % 0 lf 1024,9 hPa 0,0 l/m 2 min 0 min 312 W/m 18,8 km/h (3 Bft) 97,87 %
22.04.2017 10:52 10,0 C 13,3 C 10,0 C 78 % 0 lf 1025,0 hPa 0,0 l/m 0 min 0 min 105 W/m 18,8 km/h (3 Bft) 97,56 %
22.04.2017 10:54 10,0 C 12,2 C 9,4 C 77 % 0 lf 1024,9 hPa 0,0 l/m 0 min 0 min 95 W/m 20,9 km/h (4 Bft) 97,78 %
22.04.2017 10:56 9,9 C 11,1 C 9,4 C 76 % 0 lf 1025,0 hPa 0,0 l/m 0 min 0 min 89 W/m 20,9 km/h (4 Bft) 97,87 %
22.04.2017 10:58 9,9 C 10,6 C 8,9 C 76 % 0 lf 1025,0 hPa 0,0 l/m 0 min 0 min 112 W/m 20,9 km/h (4 Bft) 97,87 %
22.04.2017 11:00 9,8 C 10,0 C 8,9 C 75 % 0 lf 1025,0 hPa 0,0 l/m 0 min 0 min 122 W/m 20,9 km/h (4 Bft) 100,00 %
22.04.2017 11:02 9,7 C 10,0 C 8,9 C 75 % 0 lf 1025,1 hPa 0,0 l/m 0 min 0 min 112 W/m 16,7 km/h (3 Bft) 100,00 %
22.04.2017 11:04 9,7 C 10,0 C 8,3 C 75 % 0 lf 1025,1 hPa 0,0 l/m 0 min 0 min 117 W/m 20,9 km/h (4 Bft) 100,00 %
22.04.2017 11:06 9,6 C 10,0 C 8,3 C 75 % 0 lf 1025,1 hPa 0,0 l/m 0 min 0 min 118 W/m 18,8 km/h (3 Bft) 100,00 %
22.04.2017 11:08 9,4 C 10,0 C 8,3 C 75 % 0 lf 1025,2 hPa 0,0 l/m 0 min 0 min 113 W/m 25,1 km/h (4 Bft) 100,00 %
22.04.2017 11:10 9,3 C 10,0 C 8,3 C 75 % 0 lf 1025,1 hPa 0,0 l/m 0 min 0 min 114 W/m 27,2 km/h (4 Bft) 97,87 %
22.04.2017 11:12 9,3 C 9,4 C 8,3 C 74 % 0 lf 1025,1 hPa 0,0 l/m 0 min 0 min 117 W/m 27,2 km/h (4 Bft) 95,74 %
22.04.2017 11:14 9,2 C 9,4 C 8,3 C 74 % 0 lf 1025,2 hPa 0,0 l/m 0 min 0 min 129 W/m 29,3 km/h (5 Bft) 95,74 %
22.04.2017 11:16 9,1 C 9,4 C 8,3 C 73 % 0 lf 1025,0 hPa 0,0 l/m 0 min 0 min 152 W/m 27,2 km/h (4 Bft) 95,65 %
22.04.2017 11:18 9,0 C 10,0 C 8,9 C 73 % 0 lf 1025,1 hPa 0,0 l/m 0 min 0 min 192 W/m 20,9 km/h (4 Bft) 97,87 %
22.04.2017 11:20 8,9 C 10,0 C 8,9 C 74 % 0 lf 1025,1 hPa 0,0 l/m 0 min 0 min 218 W/m 25,1 km/h (4 Bft) 100,00 %
22.04.2017 11:22 8,9 C 13,3 C 10,6 C 74 % 0 lf 1025,1 hPa 0,0 l/m 0 min 0 min 258 W/m 20,9 km/h (4 Bft) 100,00 %
22.04.2017 11:24 9,0 C 15,6 C 12,2 C 75 % 0 lf 1025,0 hPa 0,0 l/m 0 min 0 min 258 W/m 14,6 km/h (3 Bft) 100,00 %
22.04.2017 11:26 9,1 C 18,3 C 13,3 C 76 % 0 lf 1025,1 hPa 0,0 l/m 2 min 0 min 476 W/m 20,9 km/h (4 Bft) 100,00 %
22.04.2017 11:28 9,2 C 20,6 C 15,6 C 77 % 0 lf 1024,9 hPa 0,0 l/m 2 min 0 min 725 W/m 23,0 km/h (4 Bft) 97,83 %
22.04.2017 11:30 9,4 C 18,9 C 15,0 C 77 % 0 lf 1024,9 hPa 0,0 l/m 2 min 0 min 741 W/m 29,3 km/h (5 Bft) 97,87 %
22.04.2017 11:32 9,6 C 17,2 C 13,9 C 76 % 0 lf 1025,0 hPa 0,0 l/m 2 min 0 min 344 W/m 25,1 km/h (4 Bft) 95,74 %
22.04.2017 11:34 9,7 C 15,6 C 12,2 C 74 % 0 lf 1025,0 hPa 0,0 l/m 0 min 0 min 334 W/m 29,3 km/h (5 Bft) 95,74 %
22.04.2017 11:36 9,7 C 13,9 C 11,1 C 72 % 0 lf 1025,1 hPa 0,0 l/m 0 min 0 min 322 W/m 37,7 km/h (5 Bft) 97,87 %
22.04.2017 11:38 9,7 C 13,3 C 10,6 C 70 % 0 lf 1025,0 hPa 0,0 l/m 0 min 0 min 303 W/m 31,4 km/h (5 Bft) 97,87 %
22.04.2017 11:40 9,7 C 15,6 C 12,2 C 69 % 0 lf 1025,1 hPa 0,0 l/m 0 min 0 min 332 W/m 20,9 km/h (4 Bft) 97,83 %
22.04.2017 11:42 9,8 C 16,7 C 13,9 C 70 % 0 lf 1024,9 hPa 0,0 l/m 2 min 0 min 835 W/m 25,1 km/h (4 Bft) 97,87 %
22.04.2017 11:44 9,9 C 15,6 C 13,3 C 70 % 0 lf 1024,9 hPa 0,0 l/m 0 min 0 min 335 W/m 25,1 km/h (4 Bft) 97,87 %
22.04.2017 11:46 10,0 C 13,9 C 12,8 C 69 % 0 lf 1024,9 hPa 0,0 l/m 0 min 0 min 323 W/m 33,5 km/h (5 Bft) 97,87 %
22.04.2017 11:48 10,0 C 13,3 C 12,2 C 68 % 0 lf 1025,2 hPa 0,0 l/m 0 min 0 min 338 W/m 35,6 km/h (5 Bft) 93,62 %
22.04.2017 11:50 10,0 C 12,8 C 11,7 C 67 % 0 lf 1025,1 hPa 0,0 l/m 0 min 0 min 342 W/m 33,5 km/h (5 Bft) 97,87 %
22.04.2017 11:52 10,0 C 12,8 C 11,1 C 67 % 0 lf 1024,9 hPa 0,0 l/m 2 min 0 min 367 W/m 23,0 km/h (4 Bft) 97,83 %
22.04.2017 11:54 10,0 C 12,2 C 11,1 C 67 % 0 lf 1024,9 hPa 0,0 l/m 0 min 0 min 272 W/m 23,0 km/h (4 Bft) 97,87 %
22.04.2017 11:56 10,0 C 12,2 C 11,1 C 68 % 0 lf 1025,0 hPa 0,0 l/m 0 min 0 min 280 W/m 29,3 km/h (5 Bft) 93,62 %
22.04.2017 11:58 10,0 C 12,2 C 11,1 C 67 % 0 lf 1025,0 hPa 0,0 l/m 0 min 0 min 294 W/m 20,9 km/h (4 Bft) 97,87 %
22.04.2017 12:00 10,0 C 12,2 C 11,1 C 67 % 0 lf 1025,0 hPa 0,0 l/m 0 min 0 min 296 W/m 33,5 km/h (5 Bft) 97,87 %
22.04.2017 12:02 9,9 C 12,2 C 11,1 C 65 % 0 lf 1025,0 hPa 0,0 l/m 0 min 0 min 298 W/m 29,3 km/h (5 Bft) 95,74 %
22.04.2017 12:04 9,9 C 12,2 C 11,1 C 65 % 0 lf 1024,9 hPa 0,0 l/m 0 min 0 min 315 W/m 31,4 km/h (5 Bft) 95,65 %
22.04.2017 12:06 9,9 C 12,8 C 11,1 C 66 % 0 lf 1025,0 hPa 0,0 l/m 0 min 0 min 320 W/m 33,5 km/h (5 Bft) 91,49 %
22.04.2017 12:08 9,9 C 12,8 C 11,1 C 66 % 0 lf 1025,0 hPa 0,0 l/m 0 min 0 min 311 W/m 25,1 km/h (4 Bft) 93,62 %
22.04.2017 12:10 9,9 C 12,8 C 11,1 C 66 % 0 lf 1025,0 hPa 0,0 l/m 0 min 0 min 317 W/m 29,3 km/h (5 Bft) 93,62 %
22.04.2017 12:12 9,9 C 12,8 C 11,7 C 66 % 0 lf 1025,0 hPa 0,0 l/m 0 min 0 min 340 W/m 23,0 km/h (4 Bft) 95,74 %
22.04.2017 12:14 9,9 C 13,3 C 11,7 C 66 % 0 lf 1025,1 hPa 0,0 l/m 2 min 0 min 416 W/m 27,2 km/h (4 Bft) 95,74 %
22.04.2017 12:16 9,9 C 13,9 C 12,2 C 66 % 0 lf 1025,0 hPa 0,0 l/m 2 min 0 min 448 W/m 25,1 km/h (4 Bft) 95,65 %
22.04.2017 12:18 10,0 C 13,9 C 12,2 C 67 % 0 lf 1025,0 hPa 0,0 l/m 2 min 0 min 416 W/m 25,1 km/h (4 Bft) 95,74 %
22.04.2017 12:20 10,0 C 14,4 C 12,2 C 67 % 0 lf 1025,1 hPa 0,0 l/m 2 min 0 min 452 W/m 25,1 km/h (4 Bft) 93,62 %
22.04.2017 12:22 10,1 C 13,3 C 11,7 C 67 % 0 lf 1025,2 hPa 0,0 l/m 0 min 0 min 360 W/m 25,1 km/h (4 Bft) 95,74 %
22.04.2017 12:24 10,1 C 13,9 C 11,7 C 66 % 0 lf 1025,1 hPa 0,0 l/m 2 min 0 min 387 W/m 31,4 km/h (5 Bft) 93,62 %
22.04.2017 12:26 10,1 C 14,4 C 12,2 C 66 % 0 lf 1025,1 hPa 0,0 l/m 2 min 0 min 417 W/m 25,1 km/h (4 Bft) 95,65 %
22.04.2017 12:28 10,2 C 13,9 C 12,2 C 66 % 0 lf 1025,1 hPa 0,0 l/m 2 min 0 min 406 W/m 33,5 km/h (5 Bft) 97,87 %
22.04.2017 12:30 10,2 C 13,9 C 11,7 C 65 % 0 lf 1025,1 hPa 0,0 l/m 0 min 0 min 347 W/m 23,0 km/h (4 Bft) 95,74 %
22.04.2017 12:32 10,2 C 13,3 C 11,7 C 66 % 0 lf 1025,2 hPa 0,0 l/m 0 min 0 min 292 W/m 27,2 km/h (4 Bft) 95,74 %
22.04.2017 12:34 10,2 C 13,3 C 11,7 C 66 % 0 lf 1025,2 hPa 0,0 l/m 0 min 0 min 319 W/m 27,2 km/h (4 Bft) 95,74 %
22.04.2017 12:36 10,2 C 12,8 C 11,7 C 65 % 0 lf 1025,2 hPa 0,0 l/m 0 min 0 min 352 W/m 27,2 km/h (4 Bft) 91,49 %
22.04.2017 12:38 10,2 C 12,8 C 11,7 C 66 % 0 lf 1025,2 hPa 0,0 l/m 2 min 0 min 386 W/m 25,1 km/h (4 Bft) 93,48 %
22.04.2017 12:40 10,2 C 12,8 C 11,7 C 67 % 0 lf 1025,3 hPa 0,0 l/m 2 min 0 min 415 W/m 25,1 km/h (4 Bft) 93,62 %
22.04.2017 12:42 10,2 C 13,3 C 11,7 C 68 % 0 lf 1025,3 hPa 0,0 l/m 2 min 0 min 474 W/m 27,2 km/h (4 Bft) 91,49 %
22.04.2017 12:44 10,2 C 13,9 C 11,7 C 69 % 0 lf 1025,3 hPa 0,0 l/m 2 min 0 min 503 W/m 27,2 km/h (4 Bft) 91,49 %
22.04.2017 12:46 10,2 C 14,4 C 11,7 C 70 % 0 lf 1025,2 hPa 0,0 l/m 2 min 0 min 441 W/m 20,9 km/h (4 Bft) 91,49 %
22.04.2017 12:48 10,2 C 15,0 C 11,7 C 70 % 0 lf 1025,2 hPa 0,0 l/m 2 min 0 min 437 W/m 25,1 km/h (4 Bft) 93,62 %
22.04.2017 12:50 10,2 C 14,4 C 11,1 C 69 % 0 lf 1025,1 hPa 0,0 l/m 2 min 0 min 493 W/m 31,4 km/h (5 Bft) 89,13 %
22.04.2017 12:52 10,2 C 16,7 C 11,7 C 69 % 0 lf 1025,2 hPa 0,0 l/m 2 min 0 min 717 W/m 25,1 km/h (4 Bft) 95,74 %
22.04.2017 12:54 10,2 C 19,4 C 12,8 C 69 % 0 lf 1025,0 hPa 0,0 l/m 2 min 0 min 912 W/m 16,7 km/h (3 Bft) 95,74 %
22.04.2017 12:56 10,3 C 19,4 C 12,2 C 69 % 0 lf 1024,9 hPa 0,0 l/m 2 min 0 min 875 W/m 18,8 km/h (3 Bft) 95,74 %
22.04.2017 12:58 10,3 C 19,4 C 12,2 C 68 % 0 lf 1024,9 hPa 0,0 l/m 2 min 0 min 855 W/m 25,1 km/h (4 Bft) 95,74 %
22.04.2017 13:00 10,4 C 20,0 C 12,2 C 66 % 0 lf 1025,0 hPa 0,0 l/m 2 min 0 min 838 W/m 29,3 km/h (5 Bft) 93,62 %
22.04.2017 13:02 10,5 C 19,4 C 12,2 C 63 % 0 lf 1024,9 hPa 0,0 l/m 2 min 0 min 846 W/m 27,2 km/h (4 Bft) 95,65 %
22.04.2017 13:04 10,6 C 18,9 C 11,7 C 63 % 0 lf 1025,0 hPa 0,0 l/m 2 min 0 min 852 W/m 29,3 km/h (5 Bft) 95,74 %
22.04.2017 13:06 10,6 C 18,9 C 11,7 C 62 % 0 lf 1024,9 hPa 0,0 l/m 2 min 0 min 868 W/m 29,3 km/h (5 Bft) 97,87 %
22.04.2017 13:08 10,7 C 20,6 C 12,2 C 63 % 0 lf 1024,9 hPa 0,0 l/m 2 min 0 min 890 W/m 18,8 km/h (3 Bft) 97,87 %
22.04.2017 13:10 10,8 C 21,1 C 12,8 C 63 % 0 lf 1024,9 hPa 0,0 l/m 2 min 0 min 931 W/m 31,4 km/h (5 Bft) 97,87 %
22.04.2017 13:12 10,9 C 19,4 C 12,8 C 62 % 0 lf 1024,9 hPa 0,0 l/m 2 min 0 min 781 W/m 33,5 km/h (5 Bft) 97,87 %
22.04.2017 13:14 11,0 C 17,2 C 13,3 C 61 % 0 lf 1024,9 hPa 0,0 l/m 2 min 0 min 687 W/m 31,4 km/h (5 Bft) 97,83 %
22.04.2017 13:16 11,1 C 16,7 C 13,9 C 62 % 0 lf 1024,9 hPa 0,0 l/m 2 min 0 min 687 W/m 18,8 km/h (3 Bft) 95,74 %
22.04.2017 13:18 11,2 C 16,7 C 13,9 C 62 % 0 lf 1024,8 hPa 0,0 l/m 2 min 0 min 743 W/m 20,9 km/h (4 Bft) 93,62 %
22.04.2017 13:20 11,2 C 16,1 C 13,9 C 61 % 0 lf 1024,9 hPa 0,0 l/m 2 min 0 min 843 W/m 23,0 km/h (4 Bft) 97,87 %
22.04.2017 13:22 11,3 C 15,6 C 13,3 C 60 % 0 lf 1024,9 hPa 0,0 l/m 2 min 0 min 837 W/m 20,9 km/h (4 Bft) 97,87 %
22.04.2017 13:24 11,3 C 16,1 C 13,3 C 60 % 0 lf 1024,9 hPa 0,0 l/m 2 min 0 min 846 W/m 20,9 km/h (4 Bft) 100,00 %
22.04.2017 13:26 11,3 C 15,6 C 13,3 C 60 % 0 lf 1024,8 hPa 0,0 l/m 2 min 0 min 759 W/m 18,8 km/h (3 Bft) 100,00 %
22.04.2017 13:28 11,3 C 16,7 C 13,3 C 60 % 0 lf 1024,7 hPa 0,0 l/m 2 min 0 min 428 W/m 18,8 km/h (3 Bft) 97,87 %
22.04.2017 13:30 11,3 C 16,7 C 13,3 C 59 % 0 lf 1024,8 hPa 0,0 l/m 2 min 0 min 508 W/m 25,1 km/h (4 Bft) 100,00 %
22.04.2017 13:32 11,4 C 17,8 C 13,9 C 61 % 0 lf 1024,7 hPa 0,0 l/m 2 min 0 min 586 W/m 27,2 km/h (4 Bft) 95,74 %
22.04.2017 13:34 11,4 C 15,6 C 12,8 C 59 % 0 lf 1024,9 hPa 0,0 l/m 2 min 0 min 529 W/m 37,7 km/h (5 Bft) 100,00 %
22.04.2017 13:36 11,3 C 15,0 C 12,8 C 58 % 0 lf 1024,8 hPa 0,0 l/m 2 min 0 min 401 W/m 20,9 km/h (4 Bft) 100,00 %
22.04.2017 13:38 11,3 C 14,4 C 12,8 C 59 % 0 lf 1024,7 hPa 0,0 l/m 0 min 0 min 345 W/m 27,2 km/h (4 Bft) 100,00 %
22.04.2017 13:40 11,3 C 14,4 C 13,3 C 59 % 0 lf 1024,7 hPa 0,0 l/m 0 min 0 min 373 W/m 23,0 km/h (4 Bft) 100,00 %
22.04.2017 13:42 11,3 C 14,4 C 12,8 C 59 % 0 lf 1024,7 hPa 0,0 l/m 2 min 0 min 394 W/m 18,8 km/h (3 Bft) 100,00 %
22.04.2017 13:44 11,3 C 15,0 C 12,8 C 60 % 0 lf 1024,6 hPa 0,0 l/m 0 min 0 min 308 W/m 16,7 km/h (3 Bft) 100,00 %
22.04.2017 13:46 11,3 C 14,4 C 12,8 C 61 % 0 lf 1024,6 hPa 0,0 l/m 0 min 0 min 207 W/m 23,0 km/h (4 Bft) 100,00 %
22.04.2017 13:48 11,3 C 13,3 C 11,7 C 60 % 0 lf 1024,7 hPa 0,0 l/m 0 min 0 min 163 W/m 29,3 km/h (5 Bft) 97,83 %
22.04.2017 13:50 11,2 C 12,8 C 11,7 C 60 % 0 lf 1024,7 hPa 0,0 l/m 0 min 0 min 156 W/m 23,0 km/h (4 Bft) 100,00 %
22.04.2017 13:52 11,2 C 12,2 C 11,1 C 59 % 0 lf 1024,6 hPa 0,0 l/m 0 min 0 min 194 W/m 20,9 km/h (4 Bft) 100,00 %
22.04.2017 13:54 11,1 C 12,2 C 11,1 C 59 % 0 lf 1024,6 hPa 0,0 l/m 0 min 0 min 261 W/m 18,8 km/h (3 Bft) 100,00 %
22.04.2017 13:56 11,1 C 12,8 C 12,2 C 61 % 0 lf 1024,6 hPa 0,0 l/m 0 min 0 min 360 W/m 20,9 km/h (4 Bft) 100,00 %
22.04.2017 13:58 11,1 C 13,9 C 12,8 C 60 % 0 lf 1024,5 hPa 0,0 l/m 2 min 0 min 399 W/m 14,6 km/h (3 Bft) 100,00 %
22.04.2017 14:00 11,0 C 13,9 C 12,2 C 61 % 0 lf 1024,4 hPa 0,0 l/m 2 min 0 min 393 W/m 20,9 km/h (4 Bft) 95,65 %
22.04.2017 14:02 11,0 C 13,9 C 12,8 C 61 % 0 lf 1024,4 hPa 0,0 l/m 0 min 0 min 318 W/m 18,8 km/h (3 Bft) 97,87 %
22.04.2017 14:04 11,0 C 13,3 C 12,2 C 61 % 0 lf 1024,5 hPa 0,0 l/m 0 min 0 min 325 W/m 18,8 km/h (3 Bft) 100,00 %
22.04.2017 14:06 11,0 C 13,9 C 12,8 C 61 % 0 lf 1024,4 hPa 0,0 l/m 0 min 0 min 349 W/m 20,9 km/h (4 Bft) 93,62 %
22.04.2017 14:08 11,0 C 14,4 C 13,3 C 63 % 0 lf 1024,3 hPa 0,0 l/m 0 min 0 min 373 W/m 18,8 km/h (3 Bft) 95,74 %
22.04.2017 14:10 11,1 C 14,4 C 13,3 C 63 % 0 lf 1024,5 hPa 0,0 l/m 2 min 0 min 391 W/m 23,0 km/h (4 Bft) 100,00 %
22.04.2017 14:12 11,1 C 14,4 C 12,8 C 61 % 0 lf 1024,4 hPa 0,0 l/m 2 min 0 min 405 W/m 25,1 km/h (4 Bft) 100,00 %
22.04.2017 14:14 11,1 C 14,4 C 12,8 C 61 % 0 lf 1024,6 hPa 0,0 l/m 2 min 0 min 410 W/m 20,9 km/h (4 Bft) 100,00 %
22.04.2017 14:16 11,1 C 14,4 C 12,8 C 61 % 0 lf 1024,4 hPa 0,0 l/m 2 min 0 min 380 W/m 29,3 km/h (5 Bft) 100,00 %
22.04.2017 14:18 11,1 C 15,0 C 12,8 C 61 % 0 lf 1024,4 hPa 0,0 l/m 2 min 0 min 388 W/m 33,5 km/h (5 Bft) 100,00 %
22.04.2017 14:20 11,2 C 16,1 C 13,3 C 60 % 0 lf 1024,6 hPa 0,0 l/m 2 min 0 min 565 W/m 37,7 km/h (5 Bft) 100,00 %
22.04.2017 14:22 11,2 C 15,6 C 13,3 C 60 % 0 lf 1024,6 hPa 0,0 l/m 2 min 0 min 518 W/m 35,6 km/h (5 Bft) 100,00 %
22.04.2017 14:24 11,2 C 15,0 C 13,3 C 60 % 0 lf 1024,4 hPa 0,0 l/m 2 min 0 min 461 W/m 29,3 km/h (5 Bft) 100,00 %
22.04.2017 14:26 11,2 C 14,4 C 12,8 C 60 % 0 lf 1024,2 hPa 0,0 l/m 0 min 0 min 290 W/m 25,1 km/h (4 Bft) 97,87 %
22.04.2017 14:28 11,3 C 14,4 C 12,2 C 61 % 0 lf 1024,3 hPa 0,0 l/m 0 min 0 min 198 W/m 18,8 km/h (3 Bft) 97,87 %
22.04.2017 14:30 11,3 C 13,9 C 12,2 C 61 % 0 lf 1024,3 hPa 0,0 l/m 0 min 0 min 164 W/m 25,1 km/h (4 Bft) 97,87 %
22.04.2017 14:32 11,3 C 12,8 C 11,7 C 61 % 0 lf 1024,4 hPa 0,0 l/m 0 min 0 min 144 W/m 29,3 km/h (5 Bft) 97,87 %
22.04.2017 14:34 11,3 C 12,8 C 11,7 C 61 % 0 lf 1024,4 hPa 0,0 l/m 0 min 0 min 155 W/m 20,9 km/h (4 Bft) 97,87 %
22.04.2017 14:36 11,3 C 12,2 C 11,1 C 61 % 0 lf 1024,4 hPa 0,0 l/m 0 min 0 min 188 W/m 23,0 km/h (4 Bft) 93,48 %
22.04.2017 14:38 11,2 C 12,8 C 11,7 C 61 % 0 lf 1024,4 hPa 0,0 l/m 0 min 0 min 212 W/m 20,9 km/h (4 Bft) 97,87 %
22.04.2017 14:40 11,2 C 12,2 C 11,7 C 60 % 0 lf 1024,5 hPa 0,0 l/m 0 min 0 min 244 W/m 27,2 km/h (4 Bft) 95,74 %
22.04.2017 14:42 11,2 C 12,2 C 11,7 C 60 % 0 lf 1024,4 hPa 0,0 l/m 0 min 0 min 252 W/m 20,9 km/h (4 Bft) 97,87 %
22.04.2017 14:44 11,1 C 12,2 C 11,7 C 61 % 0 lf 1024,5 hPa 0,0 l/m 0 min 0 min 262 W/m 31,4 km/h (5 Bft) 95,74 %
22.04.2017 14:46 11,1 C 12,8 C 12,2 C 60 % 0 lf 1024,4 hPa 0,0 l/m 0 min 0 min 272 W/m 33,5 km/h (5 Bft) 93,48 %
22.04.2017 14:48 11,1 C 12,8 C 11,7 C 60 % 0 lf 1024,4 hPa 0,0 l/m 0 min 0 min 266 W/m 23,0 km/h (4 Bft) 100,00 %
22.04.2017 14:50 11,1 C 12,8 C 12,2 C 60 % 0 lf 1024,4 hPa 0,0 l/m 0 min 0 min 263 W/m 25,1 km/h (4 Bft) 95,74 %
22.04.2017 14:52 11,0 C 12,8 C 11,7 C 60 % 0 lf 1024,5 hPa 0,0 l/m 0 min 0 min 236 W/m 25,1 km/h (4 Bft) 95,74 %
22.04.2017 14:54 11,0 C 12,2 C 11,1 C 62 % 0 lf 1024,6 hPa 0,0 l/m 0 min 0 min 195 W/m 33,5 km/h (5 Bft) 93,62 %
22.04.2017 14:56 10,9 C 11,7 C 10,6 C 62 % 0 lf 1024,6 hPa 0,0 l/m 0 min 0 min 177 W/m 25,1 km/h (4 Bft) 93,62 %
22.04.2017 14:58 10,8 C 11,7 C 10,6 C 63 % 0 lf 1024,4 hPa 0,0 l/m 0 min 0 min 196 W/m 23,0 km/h (4 Bft) 95,65 %
22.04.2017 15:00 10,7 C 11,7 C 10,6 C 64 % 0 lf 1024,4 hPa 0,0 l/m 0 min 0 min 232 W/m 25,1 km/h (4 Bft) 93,62 %
22.04.2017 15:02 10,7 C 11,7 C 11,1 C 64 % 0 lf 1024,4 hPa 0,0 l/m 0 min 0 min 258 W/m 20,9 km/h (4 Bft) 93,62 %
22.04.2017 15:04 10,6 C 11,7 C 10,6 C 65 % 0 lf 1024,6 hPa 0,0 l/m 0 min 0 min 245 W/m 27,2 km/h (4 Bft) 93,62 %
22.04.2017 15:06 10,6 C 11,7 C 10,6 C 65 % 0 lf 1024,5 hPa 0,0 l/m 0 min 0 min 212 W/m 20,9 km/h (4 Bft) 95,74 %
22.04.2017 15:08 10,5 C 11,7 C 10,0 C 65 % 0 lf 1024,5 hPa 0,0 l/m 0 min 0 min 162 W/m 20,9 km/h (4 Bft) 91,49 %
22.04.2017 15:10 10,4 C 11,1 C 10,0 C 65 % 0 lf 1024,5 hPa 0,0 l/m 0 min 0 min 141 W/m 23,0 km/h (4 Bft) 91,30 %
22.04.2017 15:12 10,3 C 11,1 C 10,0 C 66 % 0 lf 1024,5 hPa 0,0 l/m 0 min 0 min 151 W/m 25,1 km/h (4 Bft) 93,62 %
22.04.2017 15:14 10,3 C 11,1 C 10,0 C 66 % 0 lf 1024,5 hPa 0,0 l/m 0 min 0 min 166 W/m 25,1 km/h (4 Bft) 91,49 %
22.04.2017 15:16 10,2 C 11,1 C 10,0 C 66 % 0 lf 1024,4 hPa 0,0 l/m 0 min 0 min 176 W/m 27,2 km/h (4 Bft) 91,49 %
22.04.2017 15:18 10,2 C 11,1 C 10,0 C 66 % 0 lf 1024,4 hPa 0,0 l/m 0 min 0 min 178 W/m 16,7 km/h (3 Bft) 93,62 %
22.04.2017 15:20 10,1 C 11,1 C 10,0 C 66 % 0 lf 1024,4 hPa 0,0 l/m 0 min 0 min 178 W/m 25,1 km/h (4 Bft) 93,62 %
22.04.2017 15:22 10,1 C 11,1 C 10,0 C 66 % 0 lf 1024,4 hPa 0,0 l/m 0 min 0 min 188 W/m 23,0 km/h (4 Bft) 93,48 %
22.04.2017 15:24 10,1 C 11,1 C 10,6 C 67 % 0 lf 1024,4 hPa 0,0 l/m 0 min 0 min 211 W/m 27,2 km/h (4 Bft) 93,62 %
22.04.2017 15:26 10,0 C 11,1 C 10,6 C 66 % 0 lf 1024,4 hPa 0,0 l/m 0 min 0 min 223 W/m 25,1 km/h (4 Bft) 91,49 %
22.04.2017 15:28 10,0 C 11,7 C 10,6 C 67 % 0 lf 1024,4 hPa 0,0 l/m 0 min 0 min 225 W/m 27,2 km/h (4 Bft) 93,62 %
22.04.2017 15:30 10,0 C 11,7 C 10,6 C 67 % 0 lf 1024,4 hPa 0,0 l/m 0 min 0 min 229 W/m 25,1 km/h (4 Bft) 93,62 %
22.04.2017 15:32 10,0 C 11,7 C 10,6 C 67 % 0 lf 1024,3 hPa 0,0 l/m 0 min 0 min 202 W/m 27,2 km/h (4 Bft) 89,36 %
22.04.2017 15:34 10,0 C 11,7 C 10,6 C 67 % 0 lf 1024,3 hPa 0,0 l/m 0 min 0 min 154 W/m 14,6 km/h (3 Bft) 93,48 %
22.04.2017 15:36 10,0 C 11,7 C 10,6 C 67 % 0 lf 1024,3 hPa 0,0 l/m 0 min 0 min 124 W/m 20,9 km/h (4 Bft) 91,49 %
22.04.2017 15:38 10,1 C 11,7 C 10,0 C 67 % 0 lf 1024,3 hPa 0,0 l/m 0 min 0 min 116 W/m 18,8 km/h (3 Bft) 95,74 %
22.04.2017 15:40 10,1 C 11,1 C 10,0 C 67 % 0 lf 1024,3 hPa 0,0 l/m 0 min 0 min 123 W/m 23,0 km/h (4 Bft) 93,62 %
22.04.2017 15:42 10,0 C 11,1 C 10,0 C 67 % 0 lf 1024,3 hPa 0,0 l/m 0 min 0 min 128 W/m 27,2 km/h (4 Bft) 95,74 %
22.04.2017 15:44 10,0 C 11,1 C 10,0 C 66 % 0 lf 1024,2 hPa 0,0 l/m 0 min 0 min 136 W/m 29,3 km/h (5 Bft) 95,74 %
22.04.2017 15:46 10,0 C 11,1 C 10,0 C 66 % 0 lf 1024,2 hPa 0,0 l/m 0 min 0 min 155 W/m 20,9 km/h (4 Bft) 95,65 %
22.04.2017 15:48 10,0 C 11,1 C 10,0 C 66 % 0 lf 1024,1 hPa 0,0 l/m 0 min 0 min 169 W/m 18,8 km/h (3 Bft) 93,62 %
22.04.2017 15:50 10,0 C 11,1 C 10,6 C 66 % 0 lf 1024,1 hPa 0,0 l/m 0 min 0 min 209 W/m 18,8 km/h (3 Bft) 93,62 %
22.04.2017 15:52 10,0 C 11,7 C 10,6 C 66 % 0 lf 1024,1 hPa 0,0 l/m 0 min 0 min 287 W/m 29,3 km/h (5 Bft) 92,73 %
22.04.2017 15:54 10,0 C 12,8 C 11,7 C 67 % 0 lf 1024,0 hPa 0,0 l/m 2 min 0 min 400 W/m 16,7 km/h (3 Bft) 95,74 %
22.04.2017 15:56 10,1 C 14,4 C 12,2 C 67 % 0 lf 1024,0 hPa 0,0 l/m 2 min 0 min 411 W/m 16,7 km/h (3 Bft) 95,74 %
22.04.2017 15:58 10,2 C 16,1 C 13,3 C 68 % 0 lf 1023,9 hPa 0,0 l/m 2 min 0 min 411 W/m 18,8 km/h (3 Bft) 93,62 %
22.04.2017 16:00 10,3 C 17,2 C 13,3 C 68 % 0 lf 1023,9 hPa 0,0 l/m 2 min 0 min 411 W/m 27,2 km/h (4 Bft) 95,65 %
22.04.2017 16:02 10,4 C 17,8 C 12,8 C 67 % 0 lf 1023,8 hPa 0,0 l/m 2 min 0 min 482 W/m 25,1 km/h (4 Bft) 97,87 %
22.04.2017 16:04 10,6 C 19,4 C 13,9 C 67 % 0 lf 1023,8 hPa 0,0 l/m 2 min 0 min 788 W/m 23,0 km/h (4 Bft) 95,74 %
22.04.2017 16:06 10,7 C 19,4 C 14,4 C 67 % 0 lf 1023,7 hPa 0,0 l/m 2 min 0 min 790 W/m 31,4 km/h (5 Bft) 97,87 %
22.04.2017 16:08 11,0 C 19,4 C 14,4 C 67 % 0 lf 1023,7 hPa 0,0 l/m 2 min 0 min 701 W/m 29,3 km/h (5 Bft) 97,87 %
22.04.2017 16:10 11,2 C 19,4 C 15,0 C 65 % 0 lf 1023,6 hPa 0,0 l/m 2 min 0 min 559 W/m 27,2 km/h (4 Bft) 95,74 %
22.04.2017 16:12 11,4 C 18,9 C 15,0 C 65 % 0 lf 1023,6 hPa 0,0 l/m 2 min 0 min 853 W/m 25,1 km/h (4 Bft) 97,83 %
22.04.2017 16:14 11,5 C 17,2 C 14,4 C 65 % 0 lf 1023,6 hPa 0,0 l/m 2 min 0 min 335 W/m 23,0 km/h (4 Bft) 100,00 %
22.04.2017 16:16 11,6 C 16,1 C 13,3 C 62 % 0 lf 1023,6 hPa 0,0 l/m 2 min 0 min 377 W/m 27,2 km/h (4 Bft) 97,87 %
22.04.2017 16:18 11,6 C 15,6 C 13,9 C 63 % 0 lf 1023,6 hPa 0,0 l/m 2 min 0 min 370 W/m 25,1 km/h (4 Bft) 97,87 %
22.04.2017 16:20 11,7 C 15,6 C 13,9 C 63 % 0 lf 1023,6 hPa 0,0 l/m 2 min 0 min 331 W/m 23,0 km/h (4 Bft) 97,87 %
22.04.2017 16:22 11,7 C 15,0 C 13,3 C 64 % 0 lf 1023,7 hPa 0,0 l/m 0 min 0 min 270 W/m 31,4 km/h (5 Bft) 97,87 %
22.04.2017 16:24 11,7 C 14,4 C 12,8 C 63 % 0 lf 1023,6 hPa 0,0 l/m 0 min 0 min 273 W/m 20,9 km/h (4 Bft) 100,00 %
22.04.2017 16:26 11,7 C 13,9 C 12,8 C 63 % 0 lf 1023,6 hPa 0,0 l/m 0 min 0 min 294 W/m 31,4 km/h (5 Bft) 100,00 %
22.04.2017 16:28 11,7 C 13,9 C 12,2 C 62 % 0 lf 1023,6 hPa 0,0 l/m 0 min 0 min 260 W/m 25,1 km/h (4 Bft) 97,87 %
22.04.2017 16:30 11,6 C 13,3 C 11,7 C 61 % 0 lf 1023,6 hPa 0,0 l/m 0 min 0 min 237 W/m 16,7 km/h (3 Bft) 100,00 %
22.04.2017 16:32 11,5 C 13,3 C 12,2 C 62 % 0 lf 1023,5 hPa 0,0 l/m 0 min 0 min 215 W/m 20,9 km/h (4 Bft) 100,00 %
22.04.2017 16:34 11,5 C 12,8 C 12,2 C 62 % 0 lf 1023,5 hPa 0,0 l/m 0 min 0 min 188 W/m 23,0 km/h (4 Bft) 100,00 %
22.04.2017 16:36 11,4 C 12,2 C 11,7 C 62 % 0 lf 1023,6 hPa 0,0 l/m 0 min 0 min 166 W/m 23,0 km/h (4 Bft) 100,00 %
22.04.2017 16:38 11,4 C 12,2 C 11,7 C 62 % 0 lf 1023,6 hPa 0,0 l/m 0 min 0 min 143 W/m 20,9 km/h (4 Bft) 95,65 %
22.04.2017 16:40 11,3 C 11,7 C 11,1 C 62 % 0 lf 1023,6 hPa 0,0 l/m 0 min 0 min 129 W/m 25,1 km/h (4 Bft) 97,87 %
22.04.2017 16:42 11,2 C 11,7 C 11,1 C 62 % 0 lf 1023,6 hPa 0,0 l/m 0 min 0 min 140 W/m 25,1 km/h (4 Bft) 100,00 %
22.04.2017 16:44 11,2 C 11,7 C 11,1 C 62 % 0 lf 1023,6 hPa 0,0 l/m 0 min 0 min 164 W/m 20,9 km/h (4 Bft) 100,00 %
22.04.2017 16:46 11,1 C 11,7 C 11,1 C 62 % 0 lf 1023,6 hPa 0,0 l/m 0 min 0 min 171 W/m 14,6 km/h (3 Bft) 100,00 %
22.04.2017 16:48 11,0 C 11,7 C 11,1 C 62 % 0 lf 1023,6 hPa 0,0 l/m 0 min 0 min 172 W/m 18,8 km/h (3 Bft) 97,87 %
22.04.2017 16:50 11,0 C 12,2 C 11,7 C 62 % 0 lf 1023,6 hPa 0,0 l/m 0 min 0 min 208 W/m 25,1 km/h (4 Bft) 100,00 %
22.04.2017 16:52 10,9 C 12,2 C 11,7 C 63 % 0 lf 1023,6 hPa 0,0 l/m 0 min 0 min 226 W/m 20,9 km/h (4 Bft) 97,87 %
22.04.2017 16:54 10,9 C 12,8 C 12,2 C 63 % 0 lf 1023,6 hPa 0,0 l/m 0 min 0 min 227 W/m 23,0 km/h (4 Bft) 97,87 %
22.04.2017 16:56 10,9 C 12,2 C 11,7 C 62 % 0 lf 1023,6 hPa 0,0 l/m 0 min 0 min 232 W/m 31,4 km/h (5 Bft) 95,74 %
22.04.2017 16:58 10,9 C 12,2 C 11,7 C 62 % 0 lf 1023,6 hPa 0,0 l/m 0 min 0 min 232 W/m 33,5 km/h (5 Bft) 97,87 %
22.04.2017 17:00 10,8 C 12,2 C 11,7 C 61 % 0 lf 1023,6 hPa 0,0 l/m 0 min 0 min 223 W/m 20,9 km/h (4 Bft) 97,87 %
22.04.2017 17:02 10,8 C 12,2 C 11,7 C 62 % 0 lf 1023,5 hPa 0,0 l/m 0 min 0 min 216 W/m 25,1 km/h (4 Bft) 100,00 %
22.04.2017 17:04 10,8 C 12,2 C 11,7 C 62 % 0 lf 1023,6 hPa 0,0 l/m 0 min 0 min 209 W/m 27,2 km/h (4 Bft) 97,87 %
22.04.2017 17:06 10,8 C 12,8 C 11,7 C 62 % 0 lf 1023,5 hPa 0,0 l/m 0 min 0 min 231 W/m 23,0 km/h (4 Bft) 97,87 %
22.04.2017 17:08 10,8 C 12,8 C 11,7 C 62 % 0 lf 1023,6 hPa 0,0 l/m 0 min 0 min 240 W/m 18,8 km/h (3 Bft) 95,74 %
22.04.2017 17:10 10,8 C 12,8 C 11,7 C 62 % 0 lf 1023,5 hPa 0,0 l/m 0 min 0 min 236 W/m 27,2 km/h (4 Bft) 97,87 %
22.04.2017 17:12 10,8 C 12,2 C 11,7 C 63 % 0 lf 1023,5 hPa 0,0 l/m 0 min 0 min 217 W/m 23,0 km/h (4 Bft) 97,83 %
22.04.2017 17:14 10,7 C 12,8 C 11,1 C 62 % 0 lf 1023,4 hPa 0,0 l/m 0 min 0 min 205 W/m 20,9 km/h (4 Bft) 95,74 %
22.04.2017 17:16 10,7 C 12,8 C 11,1 C 63 % 0 lf 1023,5 hPa 0,0 l/m 0 min 0 min 212 W/m 18,8 km/h (3 Bft) 98,00 %
22.04.2017 17:18 10,7 C 12,8 C 11,7 C 64 % 0 lf 1023,5 hPa 0,0 l/m 0 min 0 min 207 W/m 23,0 km/h (4 Bft) 100,00 %
22.04.2017 17:20 10,7 C 12,2 C 11,7 C 64 % 0 lf 1023,4 hPa 0,0 l/m 0 min 0 min 214 W/m 25,1 km/h (4 Bft) 97,87 %
22.04.2017 17:22 10,7 C 12,2 C 11,7 C 64 % 0 lf 1023,4 hPa 0,0 l/m 0 min 0 min 221 W/m 20,9 km/h (4 Bft) 97,87 %
22.04.2017 17:24 10,8 C 12,8 C 11,7 C 65 % 0 lf 1023,4 hPa 0,0 l/m 0 min 0 min 227 W/m 23,0 km/h (4 Bft) 100,00 %
22.04.2017 17:26 10,8 C 12,2 C 11,1 C 63 % 0 lf 1023,5 hPa 0,0 l/m 0 min 0 min 210 W/m 23,0 km/h (4 Bft) 97,87 %
22.04.2017 17:28 10,8 C 12,2 C 11,1 C 63 % 0 lf 1023,4 hPa 0,0 l/m 0 min 0 min 200 W/m 23,0 km/h (4 Bft) 100,00 %
22.04.2017 17:30 10,8 C 12,2 C 11,1 C 64 % 0 lf 1023,4 hPa 0,0 l/m 0 min 0 min 217 W/m 20,9 km/h (4 Bft) 95,74 %
22.04.2017 17:32 10,8 C 12,2 C 11,1 C 63 % 0 lf 1023,4 hPa 0,0 l/m 0 min 0 min 212 W/m 27,2 km/h (4 Bft) 100,00 %
22.04.2017 17:34 10,8 C 12,8 C 11,1 C 63 % 0 lf 1023,4 hPa 0,0 l/m 0 min 0 min 217 W/m 18,8 km/h (3 Bft) 100,00 %
22.04.2017 17:36 10,8 C 12,8 C 11,1 C 63 % 0 lf 1023,3 hPa 0,0 l/m 0 min 0 min 209 W/m 18,8 km/h (3 Bft) 97,83 %
22.04.2017 17:38 10,8 C 12,8 C 10,6 C 63 % 0 lf 1023,4 hPa 0,0 l/m 0 min 0 min 151 W/m 20,9 km/h (4 Bft) 97,87 %
22.04.2017 17:40 10,8 C 12,2 C 10,6 C 63 % 0 lf 1023,3 hPa 0,0 l/m 0 min 0 min 119 W/m 18,8 km/h (3 Bft) 100,00 %
22.04.2017 17:42 10,7 C 11,7 C 10,0 C 62 % 0 lf 1023,3 hPa 0,0 l/m 0 min 0 min 108 W/m 25,1 km/h (4 Bft) 100,00 %
22.04.2017 17:44 10,7 C 11,7 C 10,0 C 62 % 0 lf 1023,3 hPa 0,0 l/m 0 min 0 min 103 W/m 14,6 km/h (3 Bft) 97,87 %
22.04.2017 17:46 10,7 C 11,1 C 9,4 C 62 % 0 lf 1023,3 hPa 0,0 l/m 0 min 0 min 88 W/m 25,1 km/h (4 Bft) 97,83 %
22.04.2017 17:48 10,6 C 11,1 C 9,4 C 62 % 0 lf 1023,3 hPa 0,0 l/m 0 min 0 min 68 W/m 12,6 km/h (3 Bft) 97,87 %
22.04.2017 17:50 10,6 C 10,6 C 9,4 C 62 % 0 lf 1023,3 hPa 0,0 l/m 0 min 0 min 47 W/m 23,0 km/h (4 Bft) 100,00 %
22.04.2017 17:52 10,5 C 10,6 C 9,4 C 63 % 0 lf 1023,3 hPa 0,0 l/m 0 min 0 min 42 W/m 20,9 km/h (4 Bft) 100,00 %
22.04.2017 17:54 10,4 C 10,6 C 8,9 C 63 % 0 lf 1023,3 hPa 0,0 l/m 0 min 0 min 43 W/m 20,9 km/h (4 Bft) 100,00 %
22.04.2017 17:56 10,4 C 10,6 C 8,9 C 63 % 0 lf 1023,4 hPa 0,0 l/m 0 min 0 min 46 W/m 25,1 km/h (4 Bft) 95,74 %
22.04.2017 17:58 10,3 C 10,6 C 8,9 C 63 % 0 lf 1023,4 hPa 0,0 l/m 0 min 0 min 53 W/m 16,7 km/h (3 Bft) 97,87 %
22.04.2017 18:00 10,3 C 10,6 C 8,9 C 63 % 0 lf 1023,5 hPa 0,0 l/m 0 min 0 min 60 W/m 23,0 km/h (4 Bft) 95,74 %
22.04.2017 18:02 10,2 C 10,6 C 9,4 C 63 % 0 lf 1023,4 hPa 0,0 l/m 0 min 0 min 71 W/m 25,1 km/h (4 Bft) 93,62 %
22.04.2017 18:04 10,2 C 10,6 C 9,4 C 64 % 0 lf 1023,4 hPa 0,0 l/m 0 min 0 min 92 W/m 20,9 km/h (4 Bft) 95,65 %
22.04.2017 18:06 10,2 C 10,6 C 9,4 C 64 % 0 lf 1023,3 hPa 0,0 l/m 0 min 0 min 114 W/m 27,2 km/h (4 Bft) 93,62 %
22.04.2017 18:08 10,2 C 10,6 C 10,0 C 64 % 0 lf 1023,4 hPa 0,0 l/m 0 min 0 min 127 W/m 20,9 km/h (4 Bft) 94,34 %
22.04.2017 18:10 10,1 C 10,6 C 9,4 C 64 % 0 lf 1023,4 hPa 0,0 l/m 0 min 0 min 131 W/m 20,9 km/h (4 Bft) 93,62 %
22.04.2017 18:12 10,1 C 10,6 C 9,4 C 64 % 0 lf 1023,5 hPa 0,0 l/m 0 min 0 min 129 W/m 25,1 km/h (4 Bft) 93,62 %
22.04.2017 18:14 10,1 C 11,1 C 9,4 C 64 % 0 lf 1023,4 hPa 0,0 l/m 0 min 0 min 142 W/m 18,8 km/h (3 Bft) 93,62 %
22.04.2017 18:16 10,1 C 11,7 C 10,0 C 64 % 0 lf 1023,4 hPa 0,0 l/m 2 min 0 min 384 W/m 16,7 km/h (3 Bft) 93,62 %
22.04.2017 18:18 10,1 C 11,7 C 9,4 C 64 % 0 lf 1023,5 hPa 0,0 l/m 2 min 0 min 210 W/m 29,3 km/h (5 Bft) 94,74 %
22.04.2017 18:20 10,1 C 11,1 C 9,4 C 63 % 0 lf 1023,5 hPa 0,0 l/m 0 min 0 min 160 W/m 25,1 km/h (4 Bft) 91,49 %
22.04.2017 18:22 10,1 C 11,1 C 9,4 C 63 % 0 lf 1023,4 hPa 0,0 l/m 2 min 0 min 303 W/m 23,0 km/h (4 Bft) 89,13 %
22.04.2017 18:24 10,1 C 11,1 C 9,4 C 63 % 0 lf 1023,4 hPa 0,0 l/m 2 min 0 min 181 W/m 23,0 km/h (4 Bft) 93,62 %
22.04.2017 18:26 10,0 C 11,1 C 9,4 C 63 % 0 lf 1023,4 hPa 0,0 l/m 0 min 0 min 149 W/m 23,0 km/h (4 Bft) 93,62 %
22.04.2017 18:28 10,0 C 10,6 C 8,9 C 63 % 0 lf 1023,4 hPa 0,0 l/m 0 min 0 min 118 W/m 27,2 km/h (4 Bft) 93,62 %
22.04.2017 18:30 10,0 C 10,6 C 8,9 C 63 % 0 lf 1023,4 hPa 0,0 l/m 0 min 0 min 120 W/m 23,0 km/h (4 Bft) 91,49 %
22.04.2017 18:32 9,9 C 10,6 C 8,9 C 63 % 0 lf 1023,5 hPa 0,0 l/m 0 min 0 min 111 W/m 29,3 km/h (5 Bft) 93,62 %
22.04.2017 18:34 9,9 C 10,6 C 8,9 C 64 % 0 lf 1023,4 hPa 0,0 l/m 0 min 0 min 113 W/m 25,1 km/h (4 Bft) 93,48 %
22.04.2017 18:36 9,9 C 10,6 C 8,9 C 61 % 0 lf 1023,5 hPa 0,0 l/m 2 min 0 min 161 W/m 23,0 km/h (4 Bft) 94,00 %
22.04.2017 18:38 9,9 C 10,6 C 9,4 C 60 % 0 lf 1023,4 hPa 0,0 l/m 2 min 0 min 214 W/m 35,6 km/h (5 Bft) 91,49 %
22.04.2017 18:40 9,8 C 10,6 C 9,4 C 60 % 0 lf 1023,4 hPa 0,0 l/m 2 min 0 min 315 W/m 27,2 km/h (4 Bft) 91,30 %
22.04.2017 18:42 9,8 C 10,6 C 9,4 C 59 % 0 lf 1023,4 hPa 0,0 l/m 0 min 0 min 146 W/m 31,4 km/h (5 Bft) 93,62 %
22.04.2017 18:44 9,8 C 10,6 C 8,9 C 59 % 0 lf 1023,4 hPa 0,0 l/m 0 min 0 min 118 W/m 23,0 km/h (4 Bft) 93,62 %
22.04.2017 18:46 9,8 C 10,6 C 8,9 C 59 % 0 lf 1023,4 hPa 0,0 l/m 0 min 0 min 89 W/m 20,9 km/h (4 Bft) 84,91 %
22.04.2017 18:48 9,8 C 10,0 C 8,9 C 60 % 0 lf 1023,4 hPa 0,0 l/m 0 min 0 min 84 W/m 23,0 km/h (4 Bft) 93,62 %
22.04.2017 18:50 9,8 C 10,0 C 8,9 C 60 % 0 lf 1023,5 hPa 0,0 l/m 0 min 0 min 88 W/m 25,1 km/h (4 Bft) 95,74 %
22.04.2017 18:52 9,7 C 10,0 C 8,9 C 60 % 0 lf 1023,4 hPa 0,0 l/m 0 min 0 min 93 W/m 25,1 km/h (4 Bft) 95,74 %
22.04.2017 18:54 9,7 C 10,0 C 8,9 C 60 % 0 lf 1023,5 hPa 0,0 l/m 0 min 0 min 88 W/m 25,1 km/h (4 Bft) 92,11 %
22.04.2017 18:56 9,7 C 10,0 C 8,3 C 60 % 0 lf 1023,5 hPa 0,0 l/m 0 min 0 min 84 W/m 23,0 km/h (4 Bft) 93,62 %
22.04.2017 18:58 9,7 C 10,0 C 8,9 C 60 % 0 lf 1023,5 hPa 0,0 l/m 0 min 0 min 89 W/m 20,9 km/h (4 Bft) 95,92 %
22.04.2017 19:00 9,7 C 10,0 C 8,9 C 61 % 0 lf 1023,4 hPa 0,0 l/m 0 min 0 min 92 W/m 20,9 km/h (4 Bft) 97,87 %
22.04.2017 19:02 9,6 C 10,0 C 8,9 C 61 % 0 lf 1023,4 hPa 0,0 l/m 0 min 0 min 96 W/m 23,0 km/h (4 Bft) 97,87 %
22.04.2017 19:04 9,6 C 10,0 C 8,9 C 62 % 0 lf 1023,5 hPa 0,0 l/m 0 min 0 min 92 W/m 25,1 km/h (4 Bft) 95,65 %
22.04.2017 19:06 9,6 C 10,0 C 8,9 C 61 % 0 lf 1023,5 hPa 0,0 l/m 0 min 0 min 89 W/m 25,1 km/h (4 Bft) 95,74 %
22.04.2017 19:08 9,6 C 10,0 C 8,3 C 61 % 0 lf 1023,5 hPa 0,0 l/m 0 min 0 min 97 W/m 18,8 km/h (3 Bft) 95,74 %
22.04.2017 19:10 9,5 C 10,0 C 8,9 C 62 % 0 lf 1023,5 hPa 0,0 l/m 2 min 0 min 116 W/m 12,6 km/h (3 Bft) 97,87 %
22.04.2017 19:12 9,5 C 10,0 C 8,9 C 62 % 0 lf 1023,5 hPa 0,0 l/m 0 min 0 min 98 W/m 12,6 km/h (3 Bft) 97,87 %
22.04.2017 19:14 9,5 C 10,0 C 8,9 C 62 % 0 lf 1023,5 hPa 0,0 l/m 0 min 0 min 92 W/m 12,6 km/h (3 Bft) 95,65 %
22.04.2017 19:16 9,5 C 10,0 C 8,9 C 63 % 0 lf 1023,5 hPa 0,0 l/m 0 min 0 min 80 W/m 12,6 km/h (3 Bft) 95,74 %
22.04.2017 19:18 9,5 C 10,0 C 8,3 C 62 % 0 lf 1023,5 hPa 0,0 l/m 0 min 0 min 77 W/m 18,8 km/h (3 Bft) 97,87 %
22.04.2017 19:20 9,4 C 10,0 C 8,3 C 62 % 0 lf 1023,5 hPa 0,0 l/m 0 min 0 min 75 W/m 23,0 km/h (4 Bft) 95,74 %
22.04.2017 19:22 9,4 C 10,0 C 8,3 C 61 % 0 lf 1023,5 hPa 0,0 l/m 0 min 0 min 75 W/m 18,8 km/h (3 Bft) 97,87 %
22.04.2017 19:24 9,4 C 10,0 C 8,3 C 61 % 0 lf 1023,5 hPa 0,0 l/m 0 min 0 min 78 W/m 27,2 km/h (4 Bft) 95,74 %
22.04.2017 19:26 9,4 C 10,0 C 8,3 C 61 % 0 lf 1023,5 hPa 0,0 l/m 0 min 0 min 84 W/m 20,9 km/h (4 Bft) 95,65 %
22.04.2017 19:28 9,4 C 10,0 C 8,3 C 61 % 0 lf 1023,5 hPa 0,0 l/m 0 min 0 min 84 W/m 25,1 km/h (4 Bft) 100,00 %
22.04.2017 19:30 9,3 C 10,0 C 8,3 C 61 % 0 lf 1023,5 hPa 0,0 l/m 0 min 0 min 84 W/m 27,2 km/h (4 Bft) 100,00 %
22.04.2017 19:32 9,3 C 10,0 C 8,3 C 61 % 0 lf 1023,5 hPa 0,0 l/m 2 min 0 min 87 W/m 20,9 km/h (4 Bft) 100,00 %
22.04.2017 19:34 9,3 C 10,0 C 8,3 C 61 % 0 lf 1023,5 hPa 0,0 l/m 2 min 0 min 93 W/m 25,1 km/h (4 Bft) 97,87 %
22.04.2017 19:36 9,3 C 10,0 C 8,3 C 61 % 0 lf 1023,4 hPa 0,0 l/m 2 min 0 min 97 W/m 16,7 km/h (3 Bft) 96,23 %
22.04.2017 19:38 9,3 C 10,0 C 8,3 C 62 % 0 lf 1023,4 hPa 0,0 l/m 2 min 0 min 91 W/m 23,0 km/h (4 Bft) 100,00 %
22.04.2017 19:40 9,3 C 10,0 C 8,3 C 61 % 0 lf 1023,5 hPa 0,0 l/m 2 min 0 min 91 W/m 16,7 km/h (3 Bft) 100,00 %
22.04.2017 19:42 9,2 C 10,0 C 8,3 C 62 % 0 lf 1023,4 hPa 0,0 l/m 2 min 0 min 91 W/m 25,1 km/h (4 Bft) 100,00 %
22.04.2017 19:44 9,2 C 10,0 C 8,3 C 62 % 0 lf 1023,5 hPa 0,0 l/m 2 min 0 min 86 W/m 16,7 km/h (3 Bft) 95,74 %
22.04.2017 19:46 9,2 C 10,0 C 8,3 C 62 % 0 lf 1023,5 hPa 0,0 l/m 2 min 0 min 82 W/m 23,0 km/h (4 Bft) 100,00 %
22.04.2017 19:48 9,2 C 9,4 C 8,3 C 62 % 0 lf 1023,5 hPa 0,0 l/m 2 min 0 min 81 W/m 20,9 km/h (4 Bft) 100,00 %
22.04.2017 19:50 9,2 C 9,4 C 8,3 C 62 % 0 lf 1023,4 hPa 0,0 l/m 2 min 0 min 66 W/m 16,7 km/h (3 Bft) 97,87 %
22.04.2017 19:52 9,2 C 9,4 C 7,8 C 62 % 0 lf 1023,5 hPa 0,0 l/m 0 min 0 min 51 W/m 18,8 km/h (3 Bft) 97,87 %
22.04.2017 19:54 9,2 C 9,4 C 7,8 C 63 % 0 lf 1023,5 hPa 0,0 l/m 0 min 0 min 43 W/m 18,8 km/h (3 Bft) 100,00 %
22.04.2017 19:56 9,2 C 9,4 C 7,8 C 63 % 0 lf 1023,4 hPa 0,0 l/m 0 min 0 min 34 W/m 18,8 km/h (3 Bft) 100,00 %
22.04.2017 19:58 9,2 C 9,4 C 7,8 C 63 % 0 lf 1023,5 hPa 0,0 l/m 0 min 0 min 25 W/m 18,8 km/h (3 Bft) 97,87 %
22.04.2017 20:00 9,2 C 9,4 C 7,8 C 63 % 0 lf 1023,5 hPa 0,0 l/m 0 min 0 min 19 W/m 27,2 km/h (4 Bft) 100,00 %
22.04.2017 20:02 9,1 C 8,9 C 7,8 C 63 % 0 lf 1023,5 hPa 0,0 l/m 0 min 0 min 16 W/m 16,7 km/h (3 Bft) 100,00 %
22.04.2017 20:04 9,1 C 8,9 C 7,8 C 64 % 0 lf 1023,5 hPa 0,0 l/m 0 min 0 min 14 W/m 16,7 km/h (3 Bft) 100,00 %
22.04.2017 20:06 9,1 C 8,9 C 7,2 C 64 % 0 lf 1023,5 hPa 0,0 l/m 0 min 0 min 14 W/m 18,8 km/h (3 Bft) 97,87 %
22.04.2017 20:08 9,1 C 8,9 C 7,2 C 64 % 0 lf 1023,5 hPa 0,0 l/m 0 min 0 min 14 W/m 23,0 km/h (4 Bft) 100,00 %
22.04.2017 20:10 9,0 C 8,9 C 7,2 C 64 % 0 lf 1023,5 hPa 0,0 l/m 0 min 0 min 15 W/m 16,7 km/h (3 Bft) 100,00 %
22.04.2017 20:12 9,0 C 8,9 C 7,2 C 64 % 0 lf 1023,5 hPa 0,0 l/m 0 min 0 min 14 W/m 25,1 km/h (4 Bft) 100,00 %
22.04.2017 20:14 8,9 C 8,9 C 7,2 C 64 % 0 lf 1023,6 hPa 0,0 l/m 0 min 0 min 13 W/m 18,8 km/h (3 Bft) 100,00 %
22.04.2017 20:16 8,9 C 8,9 C 7,2 C 65 % 0 lf 1023,5 hPa 0,0 l/m 0 min 0 min 12 W/m 16,7 km/h (3 Bft) 100,00 %
22.04.2017 20:18 8,9 C 8,3 C 7,2 C 65 % 0 lf 1023,6 hPa 0,0 l/m 0 min 0 min 12 W/m 20,9 km/h (4 Bft) 100,00 %
22.04.2017 20:20 8,8 C 8,3 C 7,2 C 65 % 0 lf 1023,6 hPa 0,0 l/m 0 min 0 min 12 W/m 18,8 km/h (3 Bft) 100,00 %
22.04.2017 20:22 8,8 C 8,3 C 7,2 C 65 % 0 lf 1023,7 hPa 0,0 l/m 0 min 0 min 12 W/m 14,6 km/h (3 Bft) 100,00 %
22.04.2017 20:24 8,7 C 8,3 C 7,2 C 65 % 0 lf 1023,6 hPa 0,0 l/m 0 min 0 min 12 W/m 23,0 km/h (4 Bft) 100,00 %
22.04.2017 20:26 8,7 C 8,3 C 7,2 C 65 % 0 lf 1023,7 hPa 0,0 l/m 0 min 0 min 12 W/m 18,8 km/h (3 Bft) 100,00 %
22.04.2017 20:28 8,7 C 8,3 C 7,2 C 65 % 0 lf 1023,7 hPa 0,0 l/m 0 min 0 min 12 W/m 23,0 km/h (4 Bft) 97,87 %
22.04.2017 20:30 8,7 C 8,3 C 7,2 C 65 % 0 lf 1023,7 hPa 0,0 l/m 0 min 0 min 11 W/m 33,5 km/h (5 Bft) 97,87 %
22.04.2017 20:32 8,6 C 8,3 C 7,2 C 65 % 0 lf 1023,7 hPa 0,0 l/m 0 min 0 min 11 W/m 25,1 km/h (4 Bft) 98,11 %
22.04.2017 20:34 8,6 C 8,3 C 7,2 C 64 % 0 lf 1023,7 hPa 0,0 l/m 0 min 0 min 11 W/m 37,7 km/h (5 Bft) 100,00 %
22.04.2017 20:36 8,5 C 8,3 C 7,2 C 63 % 0 lf 1023,7 hPa 0,0 l/m 0 min 0 min 11 W/m 33,5 km/h (5 Bft) 97,87 %
22.04.2017 20:38 8,4 C 8,3 C 7,2 C 63 % 0 lf 1023,7 hPa 0,0 l/m 0 min 0 min 11 W/m 23,0 km/h (4 Bft) 97,87 %
22.04.2017 20:40 8,4 C 8,3 C 6,7 C 64 % 0 lf 1023,8 hPa 0,0 l/m 0 min 0 min 11 W/m 18,8 km/h (3 Bft) 100,00 %
22.04.2017 20:42 8,4 C 8,3 C 6,7 C 64 % 0 lf 1023,8 hPa 0,0 l/m 0 min 0 min 11 W/m 33,5 km/h (5 Bft) 97,83 %
22.04.2017 20:44 8,3 C 8,3 C 6,7 C 64 % 0 lf 1023,8 hPa 0,0 l/m 0 min 0 min 9 W/m 23,0 km/h (4 Bft) 100,00 %
22.04.2017 20:46 8,3 C 8,3 C 6,7 C 64 % 0 lf 1023,8 hPa 0,0 l/m 0 min 0 min 9 W/m 23,0 km/h (4 Bft) 97,87 %
22.04.2017 20:48 8,3 C 7,8 C 6,7 C 64 % 0 lf 1023,8 hPa 0,0 l/m 0 min 0 min 9 W/m 18,8 km/h (3 Bft) 100,00 %
22.04.2017 20:50 8,2 C 7,8 C 6,1 C 64 % 0 lf 1023,8 hPa 0,0 l/m 0 min 0 min 8 W/m 14,6 km/h (3 Bft) 97,87 %
22.04.2017 20:52 8,2 C 7,8 C 6,1 C 64 % 0 lf 1023,8 hPa 0,0 l/m 0 min 0 min 7 W/m 18,8 km/h (3 Bft) 87,23 %
22.04.2017 20:54 8,2 C 7,8 C 6,1 C 65 % 0 lf 1023,9 hPa 0,0 l/m 0 min 0 min 7 W/m 20,9 km/h (4 Bft) 93,62 %
22.04.2017 20:56 8,1 C 7,8 C 6,1 C 65 % 0 lf 1023,8 hPa 0,0 l/m 0 min 0 min 7 W/m 14,6 km/h (3 Bft) 95,74 %
22.04.2017 20:58 8,1 C 7,2 C 6,1 C 65 % 0 lf 1023,9 hPa 0,0 l/m 0 min 0 min 0 W/m 16,7 km/h (3 Bft) 95,74 %
22.04.2017 21:00 8,0 C 7,2 C 5,6 C 65 % 0 lf 1023,8 hPa 0,0 l/m 0 min 0 min 0 W/m 20,9 km/h (4 Bft) 95,65 %
22.04.2017 21:02 7,9 C 7,2 C 5,6 C 65 % 0 lf 1023,9 hPa 0,0 l/m 0 min 0 min 0 W/m 18,8 km/h (3 Bft) 91,49 %
22.04.2017 21:04 7,9 C 7,2 C 5,6 C 66 % 0 lf 1023,9 hPa 0,0 l/m 0 min 0 min 0 W/m 10,5 km/h (2 Bft) 91,49 %
22.04.2017 21:06 7,9 C 7,2 C 5,6 C 66 % 0 lf 1023,9 hPa 0,0 l/m 0 min 0 min 0 W/m 14,6 km/h (3 Bft) 91,49 %
22.04.2017 21:08 7,8 C 7,2 C 5,6 C 66 % 0 lf 1023,9 hPa 0,0 l/m 0 min 0 min 0 W/m 14,6 km/h (3 Bft) 93,62 %
22.04.2017 21:10 7,8 C 6,7 C 5,6 C 66 % 0 lf 1023,9 hPa 0,0 l/m 0 min 0 min 0 W/m 12,6 km/h (3 Bft) 93,62 %
22.04.2017 21:12 7,8 C 6,7 C 5,6 C 66 % 0 lf 1023,9 hPa 0,0 l/m 0 min 0 min 0 W/m 14,6 km/h (3 Bft) 95,65 %
22.04.2017 21:14 7,7 C 6,7 C 5,6 C 67 % 0 lf 1024,0 hPa 0,0 l/m 0 min 0 min 0 W/m 14,6 km/h (3 Bft) 93,62 %
22.04.2017 21:16 7,7 C 7,2 C 5,6 C 67 % 0 lf 1024,0 hPa 0,0 l/m 0 min 0 min 0 W/m 14,6 km/h (3 Bft) 91,49 %
22.04.2017 21:18 7,6 C 7,2 C 5,6 C 68 % 0 lf 1024,0 hPa 0,0 l/m 0 min 0 min 0 W/m 14,6 km/h (3 Bft) 95,74 %
22.04.2017 21:20 7,6 C 6,7 C 5,6 C 68 % 0 lf 1024,0 hPa 0,0 l/m 0 min 0 min 0 W/m 16,7 km/h (3 Bft) 93,62 %
22.04.2017 21:22 7,5 C 6,7 C 5,6 C 69 % 0 lf 1024,1 hPa 0,0 l/m 0 min 0 min 0 W/m 16,7 km/h (3 Bft) 89,36 %
22.04.2017 21:24 7,5 C 6,7 C 5,6 C 69 % 0 lf 1024,1 hPa 0,0 l/m 0 min 0 min 0 W/m 12,6 km/h (3 Bft) 93,48 %
22.04.2017 21:26 7,4 C 6,7 C 5,6 C 69 % 0 lf 1024,1 hPa 0,0 l/m 0 min 0 min 0 W/m 16,7 km/h (3 Bft) 96,23 %
22.04.2017 21:28 7,4 C 6,7 C 5,6 C 69 % 0 lf 1024,2 hPa 0,0 l/m 0 min 0 min 0 W/m 8,4 km/h (2 Bft) 95,74 %
22.04.2017 21:30 7,4 C 6,7 C 5,0 C 69 % 0 lf 1024,2 hPa 0,0 l/m 0 min 0 min 0 W/m 10,5 km/h (2 Bft) 95,74 %
22.04.2017 21:32 7,3 C 6,7 C 5,0 C 70 % 0 lf 1024,1 hPa 0,0 l/m 0 min 0 min 0 W/m 10,5 km/h (2 Bft) 95,74 %
22.04.2017 21:34 7,3 C 6,7 C 5,0 C 70 % 0 lf 1024,3 hPa 0,0 l/m 0 min 0 min 0 W/m 12,6 km/h (3 Bft) 93,62 %
22.04.2017 21:36 7,3 C 6,1 C 5,0 C 70 % 0 lf 1024,1 hPa 0,0 l/m 0 min 0 min 0 W/m 10,5 km/h (2 Bft) 93,62 %
22.04.2017 21:38 7,2 C 6,1 C 4,4 C 70 % 0 lf 1024,2 hPa 0,0 l/m 0 min 0 min 0 W/m 10,5 km/h (2 Bft) 95,65 %
22.04.2017 21:40 7,2 C 6,1 C 4,4 C 70 % 0 lf 1024,2 hPa 0,0 l/m 0 min 0 min 0 W/m 8,4 km/h (2 Bft) 95,74 %
22.04.2017 21:42 7,2 C 6,1 C 4,4 C 70 % 0 lf 1024,1 hPa 0,0 l/m 0 min 0 min 0 W/m 10,5 km/h (2 Bft) 95,74 %
22.04.2017 21:44 7,1 C 5,6 C 4,4 C 71 % 0 lf 1024,1 hPa 0,0 l/m 0 min 0 min 0 W/m 12,6 km/h (3 Bft) 97,87 %
22.04.2017 21:46 7,1 C 5,6 C 4,4 C 71 % 0 lf 1024,2 hPa 0,0 l/m 0 min 0 min 0 W/m 8,4 km/h (2 Bft) 97,87 %
22.04.2017 21:48 7,0 C 5,6 C 4,4 C 71 % 0 lf 1024,2 hPa 0,0 l/m 0 min 0 min 0 W/m 10,5 km/h (2 Bft) 95,74 %
22.04.2017 21:50 7,0 C 5,6 C 4,4 C 71 % 0 lf 1024,2 hPa 0,0 l/m 0 min 0 min 0 W/m 12,6 km/h (3 Bft) 100,00 %
22.04.2017 21:52 6,9 C 5,6 C 4,4 C 71 % 0 lf 1024,1 hPa 0,0 l/m 0 min 0 min 0 W/m 8,4 km/h (2 Bft) 95,92 %
22.04.2017 21:54 6,9 C 5,6 C 3,9 C 71 % 0 lf 1024,2 hPa 0,0 l/m 0 min 0 min 0 W/m 8,4 km/h (2 Bft) 95,74 %
22.04.2017 21:56 6,9 C 5,6 C 3,9 C 71 % 0 lf 1024,3 hPa 0,0 l/m 0 min 0 min 0 W/m 8,4 km/h (2 Bft) 97,87 %
22.04.2017 21:58 6,8 C 5,6 C 3,9 C 71 % 0 lf 1024,3 hPa 0,0 l/m 0 min 0 min 5 W/m 6,3 km/h (2 Bft) 97,83 %
22.04.2017 22:00 6,8 C 5,6 C 3,3 C 71 % 0 lf 1024,2 hPa 0,0 l/m 0 min 0 min 0 W/m 6,3 km/h (2 Bft) 95,74 %
22.04.2017 22:02 6,8 C 5,6 C 3,3 C 71 % 0 lf 1024,3 hPa 0,0 l/m 0 min 0 min 0 W/m 6,3 km/h (2 Bft) 91,49 %
22.04.2017 22:04 6,7 C 5,0 C 3,3 C 71 % 0 lf 1024,3 hPa 0,0 l/m 0 min 0 min 0 W/m 6,3 km/h (2 Bft) 97,87 %
22.04.2017 22:06 6,7 C 5,0 C 3,3 C 71 % 0 lf 1024,3 hPa 0,0 l/m 0 min 0 min 0 W/m 6,3 km/h (2 Bft) 97,87 %
22.04.2017 22:08 6,7 C 5,0 C 3,3 C 71 % 0 lf 1024,4 hPa 0,0 l/m 0 min 0 min 0 W/m 6,3 km/h (2 Bft) 95,74 %
22.04.2017 22:10 6,6 C 5,0 C 3,3 C 72 % 0 lf 1024,4 hPa 0,0 l/m 0 min 0 min 0 W/m 8,4 km/h (2 Bft) 97,83 %
22.04.2017 22:12 6,6 C 5,0 C 3,3 C 72 % 0 lf 1024,4 hPa 0,0 l/m 0 min 0 min 0 W/m 6,3 km/h (2 Bft) 97,87 %
22.04.2017 22:14 6,6 C 5,0 C 3,3 C 72 % 0 lf 1024,3 hPa 0,0 l/m 0 min 0 min 0 W/m 6,3 km/h (2 Bft) 97,87 %
22.04.2017 22:16 6,5 C 5,0 C 2,8 C 72 % 0 lf 1024,3 hPa 0,0 l/m 0 min 0 min 0 W/m 8,4 km/h (2 Bft) 95,74 %
22.04.2017 22:18 6,4 C 5,0 C 2,8 C 72 % 0 lf 1024,3 hPa 0,0 l/m 0 min 0 min 0 W/m 8,4 km/h (2 Bft) 93,62 %
22.04.2017 22:20 6,4 C 5,0 C 2,8 C 72 % 0 lf 1024,4 hPa 0,0 l/m 0 min 0 min 0 W/m 6,3 km/h (2 Bft) 95,74 %
22.04.2017 22:22 6,4 C 4,4 C 2,8 C 72 % 0 lf 1024,3 hPa 0,0 l/m 0 min 0 min 0 W/m 8,4 km/h (2 Bft) 95,65 %
22.04.2017 22:24 6,3 C 4,4 C 2,8 C 72 % 0 lf 1024,3 hPa 0,0 l/m 0 min 0 min 0 W/m 6,3 km/h (2 Bft) 95,74 %
22.04.2017 22:26 6,3 C 4,4 C 2,8 C 73 % 0 lf 1024,3 hPa 0,0 l/m 0 min 0 min 0 W/m 10,5 km/h (2 Bft) 98,00 %
22.04.2017 22:28 6,2 C 4,4 C 2,8 C 73 % 0 lf 1024,3 hPa 0,0 l/m 0 min 0 min 0 W/m 8,4 km/h (2 Bft) 97,87 %
22.04.2017 22:30 6,2 C 4,4 C 2,8 C 73 % 0 lf 1024,3 hPa 0,0 l/m 0 min 0 min 0 W/m 6,3 km/h (2 Bft) 95,74 %
22.04.2017 22:32 6,1 C 4,4 C 2,8 C 73 % 0 lf 1024,4 hPa 0,0 l/m 0 min 0 min 0 W/m 10,5 km/h (2 Bft) 97,83 %
22.04.2017 22:34 6,1 C 4,4 C 2,8 C 73 % 0 lf 1024,4 hPa 0,0 l/m 0 min 0 min 0 W/m 8,4 km/h (2 Bft) 97,87 %
22.04.2017 22:36 6,0 C 4,4 C 2,8 C 73 % 0 lf 1024,3 hPa 0,0 l/m 0 min 0 min 0 W/m 8,4 km/h (2 Bft) 95,74 %
22.04.2017 22:38 5,9 C 4,4 C 2,8 C 73 % 0 lf 1024,4 hPa 0,0 l/m 0 min 0 min 0 W/m 6,3 km/h (2 Bft) 97,87 %
22.04.2017 22:40 5,9 C 4,4 C 2,8 C 73 % 0 lf 1024,3 hPa 0,0 l/m 0 min 0 min 0 W/m 6,3 km/h (2 Bft) 93,62 %
22.04.2017 22:42 5,8 C 4,4 C 2,8 C 73 % 0 lf 1024,4 hPa 0,0 l/m 0 min 0 min 0 W/m 8,4 km/h (2 Bft) 95,74 %
22.04.2017 22:44 5,8 C 4,4 C 2,8 C 74 % 0 lf 1024,4 hPa 0,0 l/m 0 min 0 min 0 W/m 6,3 km/h (2 Bft) 95,65 %
22.04.2017 22:46 5,8 C 5,0 C 2,8 C 74 % 0 lf 1024,4 hPa 0,0 l/m 0 min 0 min 0 W/m 6,3 km/h (2 Bft) 95,74 %
22.04.2017 22:48 5,7 C 5,0 C 2,8 C 74 % 0 lf 1024,4 hPa 0,0 l/m 0 min 0 min 0 W/m 8,4 km/h (2 Bft) 95,74 %
22.04.2017 22:50 5,7 C 5,0 C 2,8 C 74 % 0 lf 1024,4 hPa 0,0 l/m 0 min 0 min 0 W/m 6,3 km/h (2 Bft) 93,62 %
22.04.2017 22:52 5,6 C 5,0 C 2,8 C 74 % 0 lf 1024,4 hPa 0,0 l/m 0 min 0 min 0 W/m 8,4 km/h (2 Bft) 93,62 %
22.04.2017 22:54 5,6 C 4,4 C 2,8 C 74 % 0 lf 1024,4 hPa 0,0 l/m 0 min 0 min 0 W/m 6,3 km/h (2 Bft) 95,74 %
22.04.2017 22:56 5,6 C 5,0 C 2,8 C 74 % 0 lf 1024,4 hPa 0,0 l/m 0 min 0 min 0 W/m 6,3 km/h (2 Bft) 93,48 %
22.04.2017 22:58 5,5 C 4,4 C 2,8 C 74 % 0 lf 1024,4 hPa 0,0 l/m 0 min 0 min 0 W/m 8,4 km/h (2 Bft) 95,74 %
22.04.2017 23:00 5,4 C 5,0 C 2,8 C 75 % 0 lf 1024,4 hPa 0,0 l/m 0 min 0 min 0 W/m 8,4 km/h (2 Bft) 92,86 %
22.04.2017 23:02 5,4 C 5,0 C 2,8 C 75 % 0 lf 1024,4 hPa 0,0 l/m 0 min 0 min 0 W/m 8,4 km/h (2 Bft) 95,65 %
22.04.2017 23:04 5,4 C 5,0 C 2,8 C 75 % 0 lf 1024,4 hPa 0,0 l/m 0 min 0 min 0 W/m 10,5 km/h (2 Bft) 93,62 %
22.04.2017 23:06 5,3 C 5,0 C 2,8 C 75 % 0 lf 1024,5 hPa 0,0 l/m 0 min 0 min 0 W/m 12,6 km/h (3 Bft) 93,62 %
22.04.2017 23:08 5,3 C 5,0 C 3,3 C 75 % 0 lf 1024,5 hPa 0,0 l/m 0 min 0 min 0 W/m 12,6 km/h (3 Bft) 95,74 %
22.04.2017 23:10 5,3 C 5,0 C 3,3 C 75 % 0 lf 1024,4 hPa 0,0 l/m 0 min 0 min 0 W/m 10,5 km/h (2 Bft) 95,74 %
22.04.2017 23:12 5,3 C 5,0 C 3,3 C 75 % 0 lf 1024,5 hPa 0,0 l/m 0 min 0 min 0 W/m 16,7 km/h (3 Bft) 97,87 %
22.04.2017 23:14 5,2 C 5,0 C 3,3 C 75 % 0 lf 1024,5 hPa 0,0 l/m 0 min 0 min 0 W/m 12,6 km/h (3 Bft) 100,00 %
22.04.2017 23:16 5,3 C 5,0 C 3,9 C 76 % 0 lf 1024,5 hPa 0,0 l/m 0 min 0 min 0 W/m 8,4 km/h (2 Bft) 97,87 %
22.04.2017 23:18 5,2 C 5,0 C 3,9 C 76 % 0 lf 1024,6 hPa 0,0 l/m 0 min 0 min 0 W/m 10,5 km/h (2 Bft) 100,00 %
22.04.2017 23:20 5,2 C 5,6 C 3,9 C 76 % 0 lf 1024,6 hPa 0,0 l/m 0 min 0 min 0 W/m 14,6 km/h (3 Bft) 97,87 %
22.04.2017 23:22 5,2 C 5,6 C 3,9 C 76 % 0 lf 1024,7 hPa 0,0 l/m 0 min 0 min 0 W/m 12,6 km/h (3 Bft) 97,87 %
22.04.2017 23:24 5,2 C 5,6 C 3,9 C 76 % 0 lf 1024,6 hPa 0,0 l/m 0 min 0 min 0 W/m 10,5 km/h (2 Bft) 100,00 %
22.04.2017 23:26 5,2 C 5,6 C 3,9 C 76 % 0 lf 1024,6 hPa 0,0 l/m 0 min 0 min 0 W/m 8,4 km/h (2 Bft) 93,48 %
22.04.2017 23:28 5,3 C 5,6 C 3,9 C 76 % 0 lf 1024,6 hPa 0,0 l/m 0 min 0 min 0 W/m 8,4 km/h (2 Bft) 93,62 %
22.04.2017 23:30 5,3 C 5,6 C 3,3 C 76 % 0 lf 1024,7 hPa 0,0 l/m 0 min 0 min 0 W/m 4,2 km/h (1 Bft) 100,00 %
22.04.2017 23:32 5,3 C 5,0 C 3,3 C 76 % 0 lf 1024,7 hPa 0,0 l/m 0 min 0 min 0 W/m 6,3 km/h (2 Bft) 97,87 %
22.04.2017 23:34 5,3 C 5,0 C 3,3 C 76 % 0 lf 1024,7 hPa 0,0 l/m 0 min 0 min 0 W/m 10,5 km/h (2 Bft) 95,74 %
22.04.2017 23:36 5,3 C 5,0 C 3,3 C 76 % 0 lf 1024,7 hPa 0,0 l/m 0 min 0 min 0 W/m 6,3 km/h (2 Bft) 95,74 %
22.04.2017 23:38 5,3 C 5,0 C 2,8 C 76 % 0 lf 1024,6 hPa 0,0 l/m 0 min 0 min 0 W/m 10,5 km/h (2 Bft) 97,83 %
22.04.2017 23:40 5,3 C 5,0 C 2,8 C 76 % 0 lf 1024,7 hPa 0,0 l/m 0 min 0 min 0 W/m 10,5 km/h (2 Bft) 100,00 %
22.04.2017 23:42 5,3 C 5,0 C 2,8 C 76 % 0 lf 1024,6 hPa 0,0 l/m 0 min 0 min 0 W/m 12,6 km/h (3 Bft) 97,87 %
22.04.2017 23:44 5,3 C 5,0 C 2,8 C 76 % 0 lf 1024,7 hPa 0,0 l/m 0 min 0 min 0 W/m 8,4 km/h (2 Bft) 87,23 %
22.04.2017 23:46 5,3 C 5,0 C 2,8 C 76 % 0 lf 1024,7 hPa 0,0 l/m 0 min 0 min 0 W/m 12,6 km/h (3 Bft) 95,74 %
22.04.2017 23:48 5,3 C 5,0 C 2,8 C 76 % 0 lf 1024,7 hPa 0,0 l/m 0 min 0 min 0 W/m 12,6 km/h (3 Bft) 97,83 %
22.04.2017 23:50 5,2 C 5,0 C 2,8 C 76 % 0 lf 1024,7 hPa 0,0 l/m 0 min 0 min 0 W/m 8,4 km/h (2 Bft) 95,74 %
22.04.2017 23:52 5,2 C 5,0 C 2,8 C 76 % 0 lf 1024,7 hPa 0,0 l/m 0 min 0 min 0 W/m 10,5 km/h (2 Bft) 97,87 %
22.04.2017 23:54 5,2 C 5,0 C 2,8 C 76 % 0 lf 1024,6 hPa 0,0 l/m 0 min 0 min 0 W/m 10,5 km/h (2 Bft) 93,62 %
22.04.2017 23:56 5,2 C 5,0 C 2,8 C 76 % 0 lf 1024,7 hPa 0,0 l/m 0 min 0 min 0 W/m 10,5 km/h (2 Bft) 97,87 %
22.04.2017 23:58 5,2 C 5,0 C 2,8 C 76 % 0 lf 1024,7 hPa 0,0 l/m 0 min 0 min 0 W/m 12,6 km/h (3 Bft) 91,49 %
_ Min-Zeit 23:14 22:22 22:16 13:36 00:00 04:54 - - - - 07:04 18:46
Minimum _ 5,2 C 4,4 C 2,8 C 58 % 0 lf 1022,8 hPa - - - - 4,2 km/h (1 Bft) 84,91 %
_ Max-Zeit 16:20 10:42 11:28 08:44 03:38 12:40 05:10 09:22 03:33 13:10 05:10 00:40
Maximum _ 11,7 C 21,7 C 15,6 C 96 % 15 lf 1025,3 hPa 0,2 l/m 2 min 3 min 931 W/m 39,7 km/h
N (6 Bft)
100,00 %
Durchschnitt _ 8,9 C 10,1 C 8,3 C 77 % 4 lf 1024,2 hPa #1,2 l/m #3:58 h #3:27 h 229 W/m 17,6 km/h (3 Bft) 96,50 %
© 2017 W. Hausmann